Observation data for Wall on 07/16/2019      Previous  Date  Next       Current Mesonet Observations  Soil Data  Daily Summary Page  Observations in Plain Language
KWA1 160500Z 18008KT 28/20 A2997 RMK A01 T02770195  RH  061%=      5-min Rain = 0
KWA1 160501Z 18008KT 28/20 A2997 RMK A01 T02770195  RH  061%=      5-min Rain = 0
KWA1 160502Z 18008KT 28/20 A2997 RMK A01 T02770195  RH  061%=      5-min Rain = 0
KWA1 160503Z 18008KT 28/20 A2997 RMK A01 T02770195  RH  061%=      5-min Rain = 0
KWA1 160504Z 17008KT 28/20 A2997 RMK A01 T02770195  RH  061%=      5-min Rain = 0
KWA1 160505Z 17008KT 28/20 A2997 RMK A01 T02770195  RH  061%=      5-min Rain = 0
KWA1 160506Z 17007KT 28/20 A2997 RMK A01 T02770195  RH  061%=      5-min Rain = 0
KWA1 160507Z 17007KT 28/20 A2997 RMK A01 T02770195  RH  061%=      5-min Rain = 0
KWA1 160508Z 17008KT 28/20 A2997 RMK A01 T02770195  RH  061%=      5-min Rain = 0
KWA1 160509Z 17008KT 28/20 A2997 RMK A01 T02770195  RH  061%=      5-min Rain = 0
KWA1 160510Z 17008KT 28/20 A2997 RMK A01 T02770195  RH  061%=      5-min Rain = 0
KWA1 160511Z 17008KT 28/20 A2997 RMK A01 T02760195  RH  061%=      5-min Rain = 0
KWA1 160512Z 17007KT 28/20 A2997 RMK A01 T02760195  RH  061%=      5-min Rain = 0
KWA1 160513Z 17007KT 28/20 A2997 RMK A01 T02760195  RH  061%=      5-min Rain = 0
KWA1 160514Z 17007KT 28/20 A2997 RMK A01 T02750195  RH  061%=      5-min Rain = 0
KWA1 160515Z 17008KT 28/20 A2997 RMK A01 T02750195  RH  062%=      5-min Rain = 0
KWA1 160516Z 17007KT 28/20 A2997 RMK A01 T02750195  RH  062%=      5-min Rain = 0
KWA1 160517Z 17007KT 28/20 A2997 RMK A01 T02750195  RH  062%=      5-min Rain = 0
KWA1 160518Z 17007KT 28/20 A2997 RMK A01 T02750195  RH  062%=      5-min Rain = 0
KWA1 160519Z 17008KT 27/19 A2997 RMK A01 T02740194  RH  062%=      5-min Rain = 0
KWA1 160520Z 17007KT 28/20 A2997 RMK A01 T02750195  RH  062%=      5-min Rain = 0
KWA1 160521Z 17008KT 27/20 A2997 RMK A01 T02740195  RH  062%=      5-min Rain = 0
KWA1 160522Z 17008KT 27/20 A2997 RMK A01 T02740195  RH  062%=      5-min Rain = 0
KWA1 160523Z 17008KT 27/20 A2997 RMK A01 T02730195  RH  062%=      5-min Rain = 0
KWA1 160524Z 17008KT 27/20 A2997 RMK A01 T02740195  RH  062%=      5-min Rain = 0
KWA1 160525Z 17009KT 27/20 A2997 RMK A01 T02740195  RH  062%=      5-min Rain = 0
KWA1 160526Z 18009KT 27/20 A2997 RMK A01 T02740195  RH  062%=      5-min Rain = 0
KWA1 160527Z 18008KT 27/20 A2997 RMK A01 T02730195  RH  062%=      5-min Rain = 0
KWA1 160528Z 18007KT 27/20 A2997 RMK A01 T02730195  RH  062%=      5-min Rain = 0
KWA1 160529Z 18007KT 27/20 A2997 RMK A01 T02730195  RH  062%=      5-min Rain = 0
KWA1 160530Z 18008KT 27/20 A2997 RMK A01 T02730195  RH  062%=      5-min Rain = 0
KWA1 160531Z 18007KT 27/20 A2997 RMK A01 T02730195  RH  062%=      5-min Rain = 0
KWA1 160532Z 18007KT 27/20 A2997 RMK A01 T02740195  RH  062%=      5-min Rain = 0
KWA1 160533Z 18007KT 27/20 A2997 RMK A01 T02730195  RH  062%=      5-min Rain = 0
KWA1 160534Z 18007KT 27/20 A2997 RMK A01 T02730195  RH  062%=      5-min Rain = 0
KWA1 160535Z 18007KT 27/20 A2997 RMK A01 T02730195  RH  062%=      5-min Rain = 0
KWA1 160536Z 18007KT 27/19 A2997 RMK A01 T02730194  RH  062%=      5-min Rain = 0
KWA1 160537Z 17007KT 27/20 A2997 RMK A01 T02730195  RH  062%=      5-min Rain = 0
KWA1 160538Z 17007KT 27/20 A2997 RMK A01 T02730195  RH  062%=      5-min Rain = 0
KWA1 160539Z 17006KT 27/20 A2997 RMK A01 T02730195  RH  062%=      5-min Rain = 0
KWA1 160540Z 17007KT 27/20 A2997 RMK A01 T02720195  RH  062%=      5-min Rain = 0
KWA1 160541Z 18008KT 27/20 A2997 RMK A01 T02720195  RH  063%=      5-min Rain = 0
KWA1 160542Z 18007KT 27/20 A2997 RMK A01 T02720195  RH  063%=      5-min Rain = 0
KWA1 160543Z 18007KT 27/20 A2997 RMK A01 T02720195  RH  063%=      5-min Rain = 0
KWA1 160544Z 18007KT 27/20 A2997 RMK A01 T02720195  RH  063%=      5-min Rain = 0
KWA1 160545Z 18007KT 27/20 A2997 RMK A01 T02720195  RH  063%=      5-min Rain = 0
KWA1 160546Z 18007KT 27/20 A2997 RMK A01 T02720195  RH  063%=      5-min Rain = 0
KWA1 160547Z 18006KT 27/20 A2997 RMK A01 T02710195  RH  063%=      5-min Rain = 0
KWA1 160548Z 18007KT 27/19 A2997 RMK A01 T02710194  RH  063%=      5-min Rain = 0
KWA1 160549Z 18006KT 27/19 A2997 RMK A01 T02710194  RH  063%=      5-min Rain = 0
KWA1 160550Z 18007KT 27/19 A2997 RMK A01 T02710194  RH  063%=      5-min Rain = 0
KWA1 160551Z 18007KT 27/19 A2997 RMK A01 T02710194  RH  063%=      5-min Rain = 0
KWA1 160552Z 18007KT 27/19 A2997 RMK A01 T02710194  RH  063%=      5-min Rain = 0
KWA1 160553Z 18007KT 27/19 A2997 RMK A01 T02710194  RH  063%=      5-min Rain = 0
KWA1 160554Z 18007KT 27/19 A2997 RMK A01 T02710194  RH  063%=      5-min Rain = 0
KWA1 160555Z 18007KT 27/19 A2997 RMK A01 T02710194  RH  063%=      5-min Rain = 0
KWA1 160556Z 18006KT 27/19 A2997 RMK A01 T02710194  RH  063%=      5-min Rain = 0
KWA1 160557Z 17006KT 27/19 A2997 RMK A01 T02710194  RH  063%=      5-min Rain = 0
KWA1 160558Z 17007KT 27/19 A2997 RMK A01 T02710194  RH  063%=      5-min Rain = 0
KWA1 160559Z 17006KT 27/19 A2997 RMK A01 T02710194  RH  063%=      5-min Rain = 0
KWA1 160600Z 17007KT 27/19 A2997 RMK A01 T02700194  RH  063%=      5-min Rain = 0
KWA1 160601Z 17007KT 27/19 A2997 RMK A01 T02700194  RH  063%=      5-min Rain = 0
KWA1 160602Z 17007KT 27/19 A2997 RMK A01 T02700194  RH  063%=      5-min Rain = 0
KWA1 160603Z 17007KT 27/19 A2997 RMK A01 T02700194  RH  063%=      5-min Rain = 0
KWA1 160604Z 17008KT 27/19 A2997 RMK A01 T02700194  RH  063%=      5-min Rain = 0
KWA1 160605Z 17007KT 27/19 A2997 RMK A01 T02700194  RH  063%=      5-min Rain = 0
KWA1 160606Z 17007KT 27/19 A2997 RMK A01 T02700194  RH  063%=      5-min Rain = 0
KWA1 160607Z 17007KT 27/19 A2997 RMK A01 T02700194  RH  063%=      5-min Rain = 0
KWA1 160608Z 17007KT 27/19 A2997 RMK A01 T02700194  RH  063%=      5-min Rain = 0
KWA1 160609Z 18007KT 27/19 A2997 RMK A01 T02700194  RH  063%=      5-min Rain = 0
KWA1 160610Z 18007KT 27/19 A2997 RMK A01 T02700194  RH  063%=      5-min Rain = 0
KWA1 160611Z 18007KT 27/19 A2997 RMK A01 T02690194  RH  063%=      5-min Rain = 0
KWA1 160612Z 18007KT 27/19 A2997 RMK A01 T02690194  RH  063%=      5-min Rain = 0
KWA1 160613Z 18007KT 27/19 A2997 RMK A01 T02700194  RH  063%=      5-min Rain = 0
KWA1 160614Z 18007KT 27/19 A2997 RMK A01 T02690194  RH  063%=      5-min Rain = 0
KWA1 160615Z 18007KT 27/19 A2997 RMK A01 T02690194  RH  063%=      5-min Rain = 0
KWA1 160616Z 17007KT 27/19 A2997 RMK A01 T02690194  RH  063%=      5-min Rain = 0
KWA1 160617Z 17007KT 27/19 A2997 RMK A01 T02690193  RH  063%=      5-min Rain = 0
KWA1 160618Z 17007KT 27/19 A2997 RMK A01 T02690194  RH  063%=      5-min Rain = 0
KWA1 160619Z 17008KT 27/19 A2997 RMK A01 T02690194  RH  063%=      5-min Rain = 0
KWA1 160620Z 17007KT 27/19 A2997 RMK A01 T02690193  RH  063%=      5-min Rain = 0
KWA1 160621Z 17007KT 27/19 A2997 RMK A01 T02690194  RH  063%=      5-min Rain = 0
KWA1 160622Z 17008KT 27/19 A2997 RMK A01 T02690194  RH  064%=      5-min Rain = 0
KWA1 160623Z 17008KT 27/19 A2996 RMK A01 T02690194  RH  064%=      5-min Rain = 0
KWA1 160624Z 18009KT 27/19 A2996 RMK A01 T02690194  RH  064%=      5-min Rain = 0
KWA1 160625Z 18009KT 27/20 A2996 RMK A01 T02690195  RH  064%=      5-min Rain = 0
KWA1 160626Z 18008KT 27/20 A2996 RMK A01 T02700195  RH  063%=      5-min Rain = 0
KWA1 160627Z 18009KT 27/20 A2996 RMK A01 T02700195  RH  063%=      5-min Rain = 0
KWA1 160628Z 18009KT 27/20 A2996 RMK A01 T02700196  RH  064%=      5-min Rain = 0
KWA1 160629Z 18009KT 27/20 A2996 RMK A01 T02710196  RH  064%=      5-min Rain = 0
KWA1 160630Z 18009KT 27/20 A2996 RMK A01 T02710196  RH  063%=      5-min Rain = 0
KWA1 160631Z 18009KT 27/20 A2996 RMK A01 T02720196  RH  063%=      5-min Rain = 0
KWA1 160632Z 18010KT 27/20 A2996 RMK A01 T02720196  RH  063%=      5-min Rain = 0
KWA1 160633Z 18009KT 27/20 A2996 RMK A01 T02720197  RH  063%=      5-min Rain = 0
KWA1 160634Z 18010KT 27/20 A2996 RMK A01 T02730197  RH  063%=      5-min Rain = 0
KWA1 160635Z 18010KT 27/20 A2996 RMK A01 T02730197  RH  063%=      5-min Rain = 0
KWA1 160636Z 18009KT 27/20 A2996 RMK A01 T02740197  RH  063%=      5-min Rain = 0
KWA1 160637Z 18010KT 28/20 A2996 RMK A01 T02750198  RH  063%=      5-min Rain = 0
KWA1 160638Z 19010KT 28/20 A2996 RMK A01 T02750197  RH  063%=      5-min Rain = 0
KWA1 160639Z 18010KT 28/20 A2996 RMK A01 T02750198  RH  062%=      5-min Rain = 0
KWA1 160640Z 18009KT 28/20 A2996 RMK A01 T02760198  RH  062%=      5-min Rain = 0
KWA1 160641Z 18010KT 28/20 A2996 RMK A01 T02760197  RH  062%=      5-min Rain = 0
KWA1 160642Z 18010KT 28/20 A2996 RMK A01 T02750197  RH  062%=      5-min Rain = 0
KWA1 160643Z 18009KT 28/20 A2996 RMK A01 T02750197  RH  062%=      5-min Rain = 0
KWA1 160644Z 18009KT 28/20 A2997 RMK A01 T02750197  RH  063%=      5-min Rain = 0
KWA1 160645Z 18009KT 28/20 A2997 RMK A01 T02750198  RH  063%=      5-min Rain = 0
KWA1 160646Z 18008KT 27/20 A2997 RMK A01 T02740197  RH  063%=      5-min Rain = 0
KWA1 160647Z 18009KT 27/20 A2997 RMK A01 T02740197  RH  063%=      5-min Rain = 0
KWA1 160648Z 18008KT 27/20 A2997 RMK A01 T02740198  RH  063%=      5-min Rain = 0
KWA1 160649Z 18008KT 27/20 A2997 RMK A01 T02740197  RH  063%=      5-min Rain = 0
KWA1 160650Z 18009KT 27/20 A2997 RMK A01 T02740198  RH  063%=      5-min Rain = 0
KWA1 160651Z 18008KT 27/20 A2997 RMK A01 T02740198  RH  063%=      5-min Rain = 0
KWA1 160652Z 18008KT 27/20 A2997 RMK A01 T02740198  RH  063%=      5-min Rain = 0
KWA1 160653Z 18009KT 27/20 A2997 RMK A01 T02740198  RH  063%=      5-min Rain = 0
KWA1 160654Z 17009KT 27/20 A2997 RMK A01 T02740198  RH  063%=      5-min Rain = 0
KWA1 160655Z 18009KT 27/20 A2997 RMK A01 T02740198  RH  063%=      5-min Rain = 0
KWA1 160656Z 17008KT 27/20 A2996 RMK A01 T02730198  RH  063%=      5-min Rain = 0
KWA1 160657Z 18008KT 27/20 A2996 RMK A01 T02730198  RH  063%=      5-min Rain = 0
KWA1 160658Z 17008KT 27/20 A2996 RMK A01 T02730197  RH  063%=      5-min Rain = 0
KWA1 160659Z 17009KT 27/20 A2996 RMK A01 T02730198  RH  063%=      5-min Rain = 0
KWA1 160700Z 17008KT 27/20 A2996 RMK A01 T02730198  RH  063%=      5-min Rain = 0
KWA1 160701Z 17009KT 27/20 A2996 RMK A01 T02730198  RH  064%=      5-min Rain = 0
KWA1 160702Z 17009KT 27/20 A2996 RMK A01 T02720197  RH  064%=      5-min Rain = 0
KWA1 160703Z 17010KT 27/20 A2996 RMK A01 T02720198  RH  064%=      5-min Rain = 0
KWA1 160704Z 17010KT 27/20 A2997 RMK A01 T02720198  RH  064%=      5-min Rain = 0
KWA1 160705Z 17009KT 27/20 A2997 RMK A01 T02720197  RH  064%=      5-min Rain = 0
KWA1 160706Z 17009KT 27/20 A2997 RMK A01 T02720198  RH  064%=      5-min Rain = 0
KWA1 160707Z 17008KT 27/20 A2997 RMK A01 T02720198  RH  064%=      5-min Rain = 0
KWA1 160708Z 17010KT 27/20 A2997 RMK A01 T02720198  RH  064%=      5-min Rain = 0
KWA1 160709Z 17010KT 27/20 A2997 RMK A01 T02720197  RH  064%=      5-min Rain = 0
KWA1 160710Z 17011KT 27/20 A2997 RMK A01 T02720198  RH  064%=      5-min Rain = 0
KWA1 160711Z 17010KT 27/20 A2997 RMK A01 T02720198  RH  064%=      5-min Rain = 0
KWA1 160712Z 17010KT 27/20 A2997 RMK A01 T02720198  RH  064%=      5-min Rain = 0
KWA1 160713Z 17010KT 27/20 A2997 RMK A01 T02720198  RH  064%=      5-min Rain = 0
KWA1 160714Z 17010KT 27/20 A2997 RMK A01 T02720198  RH  064%=      5-min Rain = 0
KWA1 160715Z 17010KT 27/20 A2996 RMK A01 T02720198  RH  064%=      5-min Rain = 0
KWA1 160716Z 17009KT 27/20 A2996 RMK A01 T02720198  RH  064%=      5-min Rain = 0
KWA1 160717Z 17009KT 27/20 A2996 RMK A01 T02720198  RH  064%=      5-min Rain = 0
KWA1 160718Z 17010KT 27/20 A2996 RMK A01 T02720199  RH  064%=      5-min Rain = 0
KWA1 160719Z 17009KT 27/20 A2996 RMK A01 T02720199  RH  064%=      5-min Rain = 0
KWA1 160720Z 18010KT 27/20 A2996 RMK A01 T02720199  RH  065%=      5-min Rain = 0
KWA1 160721Z 17010KT 27/20 A2996 RMK A01 T02720199  RH  065%=      5-min Rain = 0
KWA1 160722Z 17009KT 27/20 A2996 RMK A01 T02710199  RH  065%=      5-min Rain = 0
KWA1 160723Z 17009KT 27/20 A2996 RMK A01 T02720199  RH  065%=      5-min Rain = 0
KWA1 160724Z 17009KT 27/20 A2996 RMK A01 T02720199  RH  065%=      5-min Rain = 0
KWA1 160725Z 17009KT 27/20 A2996 RMK A01 T02710199  RH  065%=      5-min Rain = 0
KWA1 160726Z 18009KT 27/20 A2996 RMK A01 T02710199  RH  065%=      5-min Rain = 0
KWA1 160727Z 17008KT 27/20 A2996 RMK A01 T02710199  RH  065%=      5-min Rain = 0
KWA1 160728Z 17008KT 27/20 A2996 RMK A01 T02700199  RH  065%=      5-min Rain = 0
KWA1 160729Z 18009KT 27/20 A2996 RMK A01 T02700199  RH  065%=      5-min Rain = 0
KWA1 160730Z 18009KT 27/20 A2996 RMK A01 T02700199  RH  065%=      5-min Rain = 0
KWA1 160731Z 18008KT 27/20 A2996 RMK A01 T02700199  RH  065%=      5-min Rain = 0
KWA1 160732Z 18008KT 27/20 A2996 RMK A01 T02700199  RH  065%=      5-min Rain = 0
KWA1 160733Z 18008KT 27/20 A2996 RMK A01 T02700199  RH  065%=      5-min Rain = 0
KWA1 160734Z 18007KT 27/20 A2996 RMK A01 T02700200  RH  065%=      5-min Rain = 0
KWA1 160735Z 18008KT 27/20 A2996 RMK A01 T02700199  RH  065%=      5-min Rain = 0
KWA1 160736Z 18008KT 27/20 A2996 RMK A01 T02700200  RH  065%=      5-min Rain = 0
KWA1 160737Z 18008KT 27/20 A2996 RMK A01 T02700199  RH  065%=      5-min Rain = 0
KWA1 160738Z 18008KT 27/20 A2997 RMK A01 T02700199  RH  065%=      5-min Rain = 0
KWA1 160739Z 18008KT 27/20 A2997 RMK A01 T02700199  RH  065%=      5-min Rain = 0
KWA1 160740Z 18008KT 27/20 A2997 RMK A01 T02700199  RH  065%=      5-min Rain = 0
KWA1 160741Z 18007KT 27/20 A2997 RMK A01 T02700199  RH  065%=      5-min Rain = 0
KWA1 160742Z 18008KT 27/20 A2997 RMK A01 T02700199  RH  065%=      5-min Rain = 0
KWA1 160743Z 18007KT 27/20 A2997 RMK A01 T02700199  RH  065%=      5-min Rain = 0
KWA1 160744Z 18007KT 27/20 A2997 RMK A01 T02690199  RH  065%=      5-min Rain = 0
KWA1 160745Z 18007KT 27/20 A2997 RMK A01 T02690199  RH  066%=      5-min Rain = 0
KWA1 160746Z 18007KT 27/20 A2997 RMK A01 T02690199  RH  066%=      5-min Rain = 0
KWA1 160747Z 18008KT 27/20 A2997 RMK A01 T02690199  RH  066%=      5-min Rain = 0
KWA1 160748Z 18007KT 27/20 A2997 RMK A01 T02690199  RH  066%=      5-min Rain = 0
KWA1 160749Z 18007KT 27/20 A2997 RMK A01 T02690199  RH  066%=      5-min Rain = 0
KWA1 160750Z 18008KT 27/20 A2997 RMK A01 T02690199  RH  066%=      5-min Rain = 0
KWA1 160751Z 18007KT 27/20 A2997 RMK A01 T02690199  RH  066%=      5-min Rain = 0
KWA1 160752Z 18008KT 27/20 A2997 RMK A01 T02690199  RH  065%=      5-min Rain = 0
KWA1 160753Z 18008KT 27/20 A2997 RMK A01 T02690199  RH  066%=      5-min Rain = 0
KWA1 160754Z 17008KT 27/20 A2997 RMK A01 T02680199  RH  066%=      5-min Rain = 0
KWA1 160755Z 17007KT 27/20 A2997 RMK A01 T02680199  RH  066%=      5-min Rain = 0
KWA1 160756Z 17008KT 27/20 A2997 RMK A01 T02680198  RH  065%=      5-min Rain = 0
KWA1 160757Z 17008KT 27/20 A2997 RMK A01 T02680198  RH  065%=      5-min Rain = 0
KWA1 160758Z 17009KT 27/20 A2997 RMK A01 T02690199  RH  065%=      5-min Rain = 0
KWA1 160759Z 17008KT 27/20 A2997 RMK A01 T02690198  RH  065%=      5-min Rain = 0
KWA1 160800Z 18009KT 27/20 A2997 RMK A01 T02690198  RH  065%=      5-min Rain = 0
KWA1 160801Z 17009KT 27/20 A2997 RMK A01 T02700198  RH  065%=      5-min Rain = 0
KWA1 160802Z 17010KT 27/20 A2997 RMK A01 T02700198  RH  065%=      5-min Rain = 0
KWA1 160803Z 17009KT 27/20 A2996 RMK A01 T02700198  RH  065%=      5-min Rain = 0
KWA1 160804Z 17009KT 27/20 A2996 RMK A01 T02710198  RH  064%=      5-min Rain = 0
KWA1 160805Z 18008KT 27/20 A2996 RMK A01 T02710198  RH  064%=      5-min Rain = 0
KWA1 160806Z 18009KT 27/20 A2996 RMK A01 T02710198  RH  064%=      5-min Rain = 0
KWA1 160807Z 17010KT 27/20 A2996 RMK A01 T02710198  RH  064%=      5-min Rain = 0
KWA1 160808Z 17010KT 27/20 A2996 RMK A01 T02710198  RH  064%=      5-min Rain = 0
KWA1 160809Z 17011KT 27/20 A2996 RMK A01 T02710197  RH  064%=      5-min Rain = 0
KWA1 160810Z 18010KT 27/20 A2996 RMK A01 T02710197  RH  064%=      5-min Rain = 0
KWA1 160811Z 17009KT 27/20 A2996 RMK A01 T02720197  RH  064%=      5-min Rain = 0
KWA1 160812Z 17010KT 27/20 A2996 RMK A01 T02720197  RH  064%=      5-min Rain = 0
KWA1 160813Z 18010KT 27/20 A2996 RMK A01 T02720197  RH  064%=      5-min Rain = 0
KWA1 160814Z 18010KT 27/20 A2996 RMK A01 T02710197  RH  064%=      5-min Rain = 0
KWA1 160815Z 18010KT 27/20 A2996 RMK A01 T02720197  RH  064%=      5-min Rain = 0
KWA1 160816Z 17010KT 27/20 A2996 RMK A01 T02720197  RH  064%=      5-min Rain = 0
KWA1 160817Z 18010KT 27/20 A2996 RMK A01 T02720197  RH  064%=      5-min Rain = 0
KWA1 160818Z 17012KT 27/20 A2996 RMK A01 T02710197  RH  064%=      5-min Rain = 0
KWA1 160819Z 17011KT 27/20 A2996 RMK A01 T02720197  RH  064%=      5-min Rain = 0
KWA1 160820Z 17010KT 27/20 A2997 RMK A01 T02710196  RH  064%=      5-min Rain = 0
KWA1 160821Z 17009KT 27/20 A2997 RMK A01 T02720197  RH  064%=      5-min Rain = 0
KWA1 160822Z 17009KT 27/20 A2997 RMK A01 T02710196  RH  064%=      5-min Rain = 0
KWA1 160823Z 17011KT 27/20 A2997 RMK A01 T02710196  RH  064%=      5-min Rain = 0
KWA1 160824Z 17011KT 27/20 A2997 RMK A01 T02710197  RH  064%=      5-min Rain = 0
KWA1 160825Z 17011KT 27/20 A2996 RMK A01 T02710197  RH  064%=      5-min Rain = 0
KWA1 160826Z 17011KT 27/20 A2996 RMK A01 T02710197  RH  064%=      5-min Rain = 0
KWA1 160827Z 17009KT 27/20 A2996 RMK A01 T02710197  RH  064%=      5-min Rain = 0
KWA1 160828Z 17009KT 27/20 A2996 RMK A01 T02710197  RH  064%=      5-min Rain = 0
KWA1 160829Z 17009KT 27/20 A2996 RMK A01 T02700196  RH  064%=      5-min Rain = 0
KWA1 160830Z 17010KT 27/20 A2996 RMK A01 T02700197  RH  064%=      5-min Rain = 0
KWA1 160831Z 17011KT 27/20 A2996 RMK A01 T02700197  RH  064%=      5-min Rain = 0
KWA1 160832Z 17010KT 27/20 A2996 RMK A01 T02700197  RH  064%=      5-min Rain = 0
KWA1 160833Z 17011KT 27/20 A2996 RMK A01 T02690197  RH  065%=      5-min Rain = 0
KWA1 160834Z 17009KT 27/20 A2996 RMK A01 T02690197  RH  065%=      5-min Rain = 0
KWA1 160835Z 17009KT 27/20 A2996 RMK A01 T02690198  RH  065%=      5-min Rain = 0
KWA1 160836Z 18010KT 27/20 A2996 RMK A01 T02690197  RH  065%=      5-min Rain = 0
KWA1 160837Z 17010KT 27/20 A2996 RMK A01 T02680197  RH  065%=      5-min Rain = 0
KWA1 160838Z 17010KT 27/20 A2996 RMK A01 T02680198  RH  065%=      5-min Rain = 0
KWA1 160839Z 17010KT 27/20 A2996 RMK A01 T02680198  RH  065%=      5-min Rain = 0
KWA1 160840Z 17011KT 27/20 A2996 RMK A01 T02670198  RH  065%=      5-min Rain = 0
KWA1 160841Z 17010KT 27/20 A2996 RMK A01 T02670197  RH  066%=      5-min Rain = 0
KWA1 160842Z 17010KT 27/20 A2996 RMK A01 T02680198  RH  066%=      5-min Rain = 0
KWA1 160843Z 17008KT 27/20 A2996 RMK A01 T02670198  RH  066%=      5-min Rain = 0
KWA1 160844Z 16008KT 27/20 A2996 RMK A01 T02670198  RH  066%=      5-min Rain = 0
KWA1 160845Z 17008KT 27/20 A2996 RMK A01 T02670198  RH  066%=      5-min Rain = 0
KWA1 160846Z 17007KT 27/20 A2996 RMK A01 T02660198  RH  066%=      5-min Rain = 0
KWA1 160847Z 17008KT 27/20 A2996 RMK A01 T02660198  RH  066%=      5-min Rain = 0
KWA1 160848Z 18009KT 27/20 A2996 RMK A01 T02660198  RH  066%=      5-min Rain = 0
KWA1 160849Z 17008KT 27/20 A2996 RMK A01 T02650198  RH  067%=      5-min Rain = 0
KWA1 160850Z 17010KT 27/20 A2996 RMK A01 T02650198  RH  067%=      5-min Rain = 0
KWA1 160851Z 17009KT 27/20 A2996 RMK A01 T02650199  RH  067%=      5-min Rain = 0
KWA1 160852Z 17010KT 27/20 A2996 RMK A01 T02650198  RH  067%=      5-min Rain = 0
KWA1 160853Z 16009KT 27/20 A2996 RMK A01 T02650198  RH  067%=      5-min Rain = 0
KWA1 160854Z 16009KT 27/20 A2996 RMK A01 T02650198  RH  067%=      5-min Rain = 0
KWA1 160855Z 16010KT 27/20 A2996 RMK A01 T02650199  RH  067%=      5-min Rain = 0
KWA1 160856Z 16009KT 27/20 A2996 RMK A01 T02650199  RH  067%=      5-min Rain = 0
KWA1 160857Z 16008KT 27/20 A2996 RMK A01 T02650199  RH  067%=      5-min Rain = 0
KWA1 160858Z 17009KT 27/20 A2996 RMK A01 T02650199  RH  067%=      5-min Rain = 0
KWA1 160859Z 17008KT 26/20 A2996 RMK A01 T02640198  RH  067%=      5-min Rain = 0
KWA1 160900Z 17009KT 26/20 A2996 RMK A01 T02640199  RH  067%=      5-min Rain = 0
KWA1 160901Z 17010KT 26/20 A2996 RMK A01 T02630199  RH  068%=      5-min Rain = 0
KWA1 160902Z 17009KT 26/20 A2996 RMK A01 T02630199  RH  068%=      5-min Rain = 0
KWA1 160903Z 17010KT 26/20 A2996 RMK A01 T02640199  RH  068%=      5-min Rain = 0
KWA1 160904Z 17010KT 26/20 A2996 RMK A01 T02640199  RH  068%=      5-min Rain = 0
KWA1 160905Z 17008KT 26/20 A2996 RMK A01 T02640199  RH  068%=      5-min Rain = 0
KWA1 160906Z 17011KT 26/20 A2996 RMK A01 T02630199  RH  068%=      5-min Rain = 0
KWA1 160907Z 17009KT 26/20 A2996 RMK A01 T02630200  RH  068%=      5-min Rain = 0
KWA1 160908Z 16009KT 26/20 A2996 RMK A01 T02640199  RH  068%=      5-min Rain = 0
KWA1 160909Z 17009KT 26/20 A2996 RMK A01 T02640200  RH  068%=      5-min Rain = 0
KWA1 160910Z 16009KT 26/20 A2996 RMK A01 T02640200  RH  068%=      5-min Rain = 0
KWA1 160911Z 16010KT 26/20 A2996 RMK A01 T02640200  RH  068%=      5-min Rain = 0
KWA1 160912Z 16008KT 26/20 A2996 RMK A01 T02640200  RH  068%=      5-min Rain = 0
KWA1 160913Z 16007KT 26/20 A2996 RMK A01 T02630200  RH  068%=      5-min Rain = 0
KWA1 160914Z 16007KT 26/20 A2996 RMK A01 T02630200  RH  068%=      5-min Rain = 0
KWA1 160915Z 16008KT 26/20 A2996 RMK A01 T02620199  RH  068%=      5-min Rain = 0
KWA1 160916Z 16008KT 26/20 A2996 RMK A01 T02620199  RH  068%=      5-min Rain = 0
KWA1 160917Z 17007KT 26/20 A2996 RMK A01 T02620200  RH  069%=      5-min Rain = 0
KWA1 160918Z 17007KT 26/20 A2996 RMK A01 T02620200  RH  069%=      5-min Rain = 0
KWA1 160919Z 17006KT 26/20 A2996 RMK A01 T02610200  RH  069%=      5-min Rain = 0
KWA1 160920Z 17006KT 26/20 A2996 RMK A01 T02610200  RH  069%=      5-min Rain = 0
KWA1 160921Z 17007KT 26/20 A2996 RMK A01 T02610200  RH  069%=      5-min Rain = 0
KWA1 160922Z 18007KT 26/20 A2996 RMK A01 T02610200  RH  069%=      5-min Rain = 0
KWA1 160923Z 17006KT 26/20 A2996 RMK A01 T02600200  RH  069%=      5-min Rain = 0
KWA1 160924Z 17007KT 26/20 A2996 RMK A01 T02610200  RH  069%=      5-min Rain = 0
KWA1 160925Z 17008KT 26/20 A2996 RMK A01 T02610200  RH  069%=      5-min Rain = 0
KWA1 160926Z 17008KT 26/20 A2996 RMK A01 T02610200  RH  069%=      5-min Rain = 0
KWA1 160927Z 17008KT 26/20 A2996 RMK A01 T02600200  RH  069%=      5-min Rain = 0
KWA1 160928Z 17008KT 26/20 A2996 RMK A01 T02610201  RH  069%=      5-min Rain = 0
KWA1 160929Z 17009KT 26/20 A2996 RMK A01 T02610200  RH  069%=      5-min Rain = 0
KWA1 160930Z 17006KT 26/20 A2996 RMK A01 T02610200  RH  069%=      5-min Rain = 0
KWA1 160931Z 17007KT 26/20 A2996 RMK A01 T02610200  RH  069%=      5-min Rain = 0
KWA1 160932Z 17007KT 26/20 A2996 RMK A01 T02610200  RH  069%=      5-min Rain = 0
KWA1 160933Z 17007KT 26/20 A2996 RMK A01 T02600200  RH  070%=      5-min Rain = 0
KWA1 160934Z 17007KT 26/20 A2996 RMK A01 T02600201  RH  070%=      5-min Rain = 0
KWA1 160935Z 17007KT 26/20 A2996 RMK A01 T02600200  RH  070%=      5-min Rain = 0
KWA1 160936Z 17006KT 26/20 A2996 RMK A01 T02600200  RH  070%=      5-min Rain = 0
KWA1 160937Z 17006KT 26/20 A2996 RMK A01 T02600201  RH  070%=      5-min Rain = 0
KWA1 160938Z 17008KT 26/20 A2996 RMK A01 T02590201  RH  070%=      5-min Rain = 0
KWA1 160939Z 16009KT 26/20 A2996 RMK A01 T02590201  RH  070%=      5-min Rain = 0
KWA1 160940Z 17007KT 26/20 A2996 RMK A01 T02590200  RH  070%=      5-min Rain = 0
KWA1 160941Z 17008KT 26/20 A2996 RMK A01 T02590200  RH  070%=      5-min Rain = 0
KWA1 160942Z 17006KT 26/20 A2996 RMK A01 T02590200  RH  070%=      5-min Rain = 0
KWA1 160943Z 17006KT 26/20 A2996 RMK A01 T02590200  RH  070%=      5-min Rain = 0
KWA1 160944Z 17007KT 26/20 A2996 RMK A01 T02590200  RH  070%=      5-min Rain = 0
KWA1 160945Z 17006KT 26/20 A2997 RMK A01 T02590200  RH  070%=      5-min Rain = 0
KWA1 160946Z 17007KT 26/20 A2997 RMK A01 T02580200  RH  070%=      5-min Rain = 0
KWA1 160947Z 17007KT 26/20 A2997 RMK A01 T02580200  RH  070%=      5-min Rain = 0
KWA1 160948Z 18006KT 26/20 A2997 RMK A01 T02580200  RH  070%=      5-min Rain = 0
KWA1 160949Z 18005KT 26/20 A2997 RMK A01 T02580200  RH  070%=      5-min Rain = 0
KWA1 160950Z 17006KT 26/20 A2997 RMK A01 T02580200  RH  070%=      5-min Rain = 0
KWA1 160951Z 17007KT 26/20 A2997 RMK A01 T02570200  RH  071%=      5-min Rain = 0
KWA1 160952Z 17006KT 26/20 A2997 RMK A01 T02570200  RH  071%=      5-min Rain = 0
KWA1 160953Z 18008KT 26/20 A2997 RMK A01 T02570200  RH  071%=      5-min Rain = 0
KWA1 160954Z 18010KT 26/20 A2997 RMK A01 T02570201  RH  071%=      5-min Rain = 0
KWA1 160955Z 17009KT 26/20 A2997 RMK A01 T02570201  RH  071%=      5-min Rain = 0
KWA1 160956Z 18009KT 26/20 A2997 RMK A01 T02570201  RH  071%=      5-min Rain = 0
KWA1 160957Z 18007KT 26/20 A2997 RMK A01 T02570201  RH  071%=      5-min Rain = 0
KWA1 160958Z 18006KT 26/20 A2997 RMK A01 T02570201  RH  071%=      5-min Rain = 0
KWA1 160959Z 18007KT 26/20 A2997 RMK A01 T02570201  RH  071%=      5-min Rain = 0
KWA1 161000Z 19007KT 26/20 A2997 RMK A01 T02570201  RH  071%=      5-min Rain = 0
KWA1 161001Z 18007KT 26/20 A2997 RMK A01 T02560201  RH  072%=      5-min Rain = 0
KWA1 161002Z 19007KT 26/20 A2997 RMK A01 T02560202  RH  072%=      5-min Rain = 0
KWA1 161003Z 18007KT 26/20 A2997 RMK A01 T02570202  RH  072%=      5-min Rain = 0
KWA1 161004Z 18007KT 26/20 A2997 RMK A01 T02560202  RH  072%=      5-min Rain = 0
KWA1 161005Z 18006KT 26/20 A2997 RMK A01 T02560202  RH  072%=      5-min Rain = 0
KWA1 161006Z 18008KT 26/20 A2997 RMK A01 T02560202  RH  072%=      5-min Rain = 0
KWA1 161007Z 18007KT 26/20 A2997 RMK A01 T02560203  RH  072%=      5-min Rain = 0
KWA1 161008Z 18007KT 26/20 A2997 RMK A01 T02560203  RH  072%=      5-min Rain = 0
KWA1 161009Z 18006KT 26/20 A2997 RMK A01 T02560203  RH  073%=      5-min Rain = 0
KWA1 161010Z 18008KT 26/20 A2997 RMK A01 T02560204  RH  073%=      5-min Rain = 0
KWA1 161011Z 18007KT 26/20 A2997 RMK A01 T02560204  RH  073%=      5-min Rain = 0
KWA1 161012Z 18006KT 26/20 A2997 RMK A01 T02550204  RH  073%=      5-min Rain = 0
KWA1 161013Z 18007KT 26/20 A2997 RMK A01 T02550204  RH  073%=      5-min Rain = 0
KWA1 161014Z 18008KT 26/20 A2997 RMK A01 T02550204  RH  073%=      5-min Rain = 0
KWA1 161015Z 18008KT 26/20 A2997 RMK A01 T02550204  RH  073%=      5-min Rain = 0
KWA1 161016Z 18006KT 26/20 A2997 RMK A01 T02550204  RH  074%=      5-min Rain = 0
KWA1 161017Z 18007KT 25/20 A2997 RMK A01 T02540204  RH  073%=      5-min Rain = 0
KWA1 161018Z 18008KT 26/20 A2997 RMK A01 T02550204  RH  074%=      5-min Rain = 0
KWA1 161019Z 17008KT 26/20 A2997 RMK A01 T02550204  RH  074%=      5-min Rain = 0
KWA1 161020Z 17009KT 26/20 A2997 RMK A01 T02550204  RH  074%=      5-min Rain = 0
KWA1 161021Z 18009KT 26/20 A2997 RMK A01 T02550204  RH  074%=      5-min Rain = 0
KWA1 161022Z 18007KT 26/21 A2997 RMK A01 T02550205  RH  074%=      5-min Rain = 0
KWA1 161023Z 17007KT 26/21 A2997 RMK A01 T02550205  RH  074%=      5-min Rain = 0
KWA1 161024Z 18007KT 26/20 A2997 RMK A01 T02550204  RH  074%=      5-min Rain = 0
KWA1 161025Z 18009KT 26/21 A2997 RMK A01 T02550205  RH  074%=      5-min Rain = 0
KWA1 161026Z 17009KT 26/21 A2997 RMK A01 T02550205  RH  074%=      5-min Rain = 0
KWA1 161027Z 18009KT 26/21 A2997 RMK A01 T02550205  RH  074%=      5-min Rain = 0
KWA1 161028Z 18008KT 26/21 A2997 RMK A01 T02550205  RH  074%=      5-min Rain = 0
KWA1 161029Z 18009KT 26/21 A2997 RMK A01 T02550205  RH  074%=      5-min Rain = 0
KWA1 161030Z 18008KT 26/21 A2997 RMK A01 T02550205  RH  074%=      5-min Rain = 0
KWA1 161031Z 18006KT 26/21 A2997 RMK A01 T02550205  RH  074%=      5-min Rain = 0
KWA1 161032Z 17007KT 26/21 A2997 RMK A01 T02550205  RH  074%=      5-min Rain = 0
KWA1 161033Z 18009KT 25/21 A2997 RMK A01 T02540205  RH  074%=      5-min Rain = 0
KWA1 161034Z 18008KT 25/21 A2997 RMK A01 T02540205  RH  074%=      5-min Rain = 0
KWA1 161035Z 19009KT 25/21 A2997 RMK A01 T02540205  RH  074%=      5-min Rain = 0
KWA1 161036Z 18007KT 26/21 A2997 RMK A01 T02550206  RH  074%=      5-min Rain = 0
KWA1 161037Z 18008KT 26/21 A2997 RMK A01 T02550205  RH  074%=      5-min Rain = 0
KWA1 161038Z 18009KT 25/21 A2997 RMK A01 T02540206  RH  074%=      5-min Rain = 0
KWA1 161039Z 18007KT 25/21 A2997 RMK A01 T02540206  RH  074%=      5-min Rain = 0
KWA1 161040Z 18008KT 25/21 A2997 RMK A01 T02540206  RH  075%=      5-min Rain = 0
KWA1 161041Z 18009KT 25/21 A2997 RMK A01 T02540206  RH  075%=      5-min Rain = 0
KWA1 161042Z 18009KT 25/21 A2997 RMK A01 T02540206  RH  075%=      5-min Rain = 0
KWA1 161043Z 18009KT 25/21 A2997 RMK A01 T02540206  RH  075%=      5-min Rain = 0
KWA1 161044Z 18010KT 25/21 A2997 RMK A01 T02530205  RH  075%=      5-min Rain = 0
KWA1 161045Z 18008KT 25/21 A2997 RMK A01 T02540206  RH  075%=      5-min Rain = 0
KWA1 161046Z 18009KT 25/21 A2997 RMK A01 T02540206  RH  075%=      5-min Rain = 0
KWA1 161047Z 18011KT 25/21 A2997 RMK A01 T02540206  RH  075%=      5-min Rain = 0
KWA1 161048Z 18009KT 25/21 A2997 RMK A01 T02540206  RH  075%=      5-min Rain = 0
KWA1 161049Z 18009KT 25/21 A2997 RMK A01 T02540206  RH  075%=      5-min Rain = 0
KWA1 161050Z 18009KT 25/21 A2997 RMK A01 T02540206  RH  075%=      5-min Rain = 0
KWA1 161051Z 18008KT 25/21 A2997 RMK A01 T02540206  RH  075%=      5-min Rain = 0
KWA1 161052Z 18007KT 25/21 A2997 RMK A01 T02540206  RH  075%=      5-min Rain = 0
KWA1 161053Z 18009KT 25/21 A2997 RMK A01 T02540207  RH  075%=      5-min Rain = 0
KWA1 161054Z 19010KT 25/21 A2997 RMK A01 T02540207  RH  075%=      5-min Rain = 0
KWA1 161055Z 18008KT 25/21 A2997 RMK A01 T02540207  RH  075%=      5-min Rain = 0
KWA1 161056Z 18008KT 25/21 A2997 RMK A01 T02540207  RH  075%=      5-min Rain = 0
KWA1 161057Z 19008KT 25/21 A2997 RMK A01 T02540207  RH  075%=      5-min Rain = 0
KWA1 161058Z 18010KT 25/21 A2997 RMK A01 T02540207  RH  075%=      5-min Rain = 0
KWA1 161059Z 18008KT 25/21 A2998 RMK A01 T02540207  RH  075%=      5-min Rain = 0
KWA1 161100Z 19008KT 25/21 A2998 RMK A01 T02540207  RH  075%=      5-min Rain = 0
KWA1 161101Z 18011KT 25/21 A2998 RMK A01 T02540208  RH  076%=      5-min Rain = 0
KWA1 161102Z 18009KT 25/21 A2998 RMK A01 T02540208  RH  076%=      5-min Rain = 0
KWA1 161103Z 18008KT 25/21 A2998 RMK A01 T02540208  RH  075%=      5-min Rain = 0
KWA1 161104Z 18010KT 25/21 A2998 RMK A01 T02540208  RH  076%=      5-min Rain = 0
KWA1 161105Z 18010KT 25/21 A2998 RMK A01 T02540208  RH  076%=      5-min Rain = 0
KWA1 161106Z 19011KT 25/21 A2998 RMK A01 T02540208  RH  076%=      5-min Rain = 0
KWA1 161107Z 19010KT 25/21 A2998 RMK A01 T02540208  RH  076%=      5-min Rain = 0
KWA1 161108Z 18010KT 25/21 A2998 RMK A01 T02540208  RH  076%=      5-min Rain = 0
KWA1 161109Z 19009KT 25/21 A2998 RMK A01 T02540208  RH  076%=      5-min Rain = 0
KWA1 161110Z 19008KT 25/21 A2998 RMK A01 T02540209  RH  076%=      5-min Rain = 0
KWA1 161111Z 19009KT 25/21 A2998 RMK A01 T02540209  RH  076%=      5-min Rain = 0
KWA1 161112Z 19008KT 25/21 A2998 RMK A01 T02540209  RH  076%=      5-min Rain = 0
KWA1 161113Z 19009KT 25/21 A2998 RMK A01 T02540209  RH  076%=      5-min Rain = 0
KWA1 161114Z 18009KT 25/21 A2998 RMK A01 T02540209  RH  076%=      5-min Rain = 0
KWA1 161115Z 19009KT 25/21 A2998 RMK A01 T02540209  RH  076%=      5-min Rain = 0
KWA1 161116Z 19009KT 25/21 A2998 RMK A01 T02540209  RH  076%=      5-min Rain = 0
KWA1 161117Z 18010KT 25/21 A2998 RMK A01 T02540209  RH  076%=      5-min Rain = 0
KWA1 161118Z 19008KT 25/21 A2998 RMK A01 T02540209  RH  076%=      5-min Rain = 0
KWA1 161119Z 19008KT 25/21 A2998 RMK A01 T02530209  RH  076%=      5-min Rain = 0
KWA1 161120Z 19009KT 25/21 A2999 RMK A01 T02530209  RH  077%=      5-min Rain = 0
KWA1 161121Z 19010KT 25/21 A2999 RMK A01 T02530210  RH  077%=      5-min Rain = 0
KWA1 161122Z 19009KT 25/21 A2999 RMK A01 T02530210  RH  077%=      5-min Rain = 0
KWA1 161123Z 19009KT 25/21 A2999 RMK A01 T02530209  RH  077%=      5-min Rain = 0
KWA1 161124Z 19009KT 25/21 A2999 RMK A01 T02530209  RH  077%=      5-min Rain = 0
KWA1 161125Z 19008KT 25/21 A2999 RMK A01 T02530209  RH  077%=      5-min Rain = 0
KWA1 161126Z 19009KT 25/21 A2999 RMK A01 T02530210  RH  077%=      5-min Rain = 0
KWA1 161127Z 19011KT 25/21 A2999 RMK A01 T02530210  RH  077%=      5-min Rain = 0
KWA1 161128Z 19009KT 25/21 A2999 RMK A01 T02530211  RH  077%=      5-min Rain = 0
KWA1 161129Z 19009KT 25/21 A2999 RMK A01 T02530210  RH  077%=      5-min Rain = 0
KWA1 161130Z 19010KT 25/21 A2999 RMK A01 T02530211  RH  077%=      5-min Rain = 0
KWA1 161131Z 19010KT 25/21 A2999 RMK A01 T02530211  RH  077%=      5-min Rain = 0
KWA1 161132Z 19008KT 25/21 A2999 RMK A01 T02530210  RH  077%=      5-min Rain = 0
KWA1 161133Z 18009KT 25/21 A2999 RMK A01 T02530211  RH  077%=      5-min Rain = 0
KWA1 161134Z 19011KT 25/21 A2999 RMK A01 T02530211  RH  078%=      5-min Rain = 0
KWA1 161135Z 19009KT 25/21 A2999 RMK A01 T02530211  RH  078%=      5-min Rain = 0
KWA1 161136Z 19008KT 25/21 A2999 RMK A01 T02530211  RH  078%=      5-min Rain = 0
KWA1 161137Z 18010KT 25/21 A2999 RMK A01 T02520211  RH  078%=      5-min Rain = 0
KWA1 161138Z 19008KT 25/21 A2999 RMK A01 T02520211  RH  078%=      5-min Rain = 0
KWA1 161139Z 19007KT 25/21 A2999 RMK A01 T02520211  RH  078%=      5-min Rain = 0
KWA1 161140Z 19009KT 25/21 A2999 RMK A01 T02520211  RH  078%=      5-min Rain = 0
KWA1 161141Z 19010KT 25/21 A2999 RMK A01 T02520211  RH  078%=      5-min Rain = 0
KWA1 161142Z 18009KT 25/21 A2999 RMK A01 T02520211  RH  078%=      5-min Rain = 0
KWA1 161143Z 19008KT 25/21 A2999 RMK A01 T02520211  RH  078%=      5-min Rain = 0
KWA1 161144Z 19008KT 25/21 A2999 RMK A01 T02520211  RH  078%=      5-min Rain = 0
KWA1 161145Z 19010KT 25/21 A2999 RMK A01 T02520211  RH  078%=      5-min Rain = 0
KWA1 161146Z 19009KT 25/21 A2999 RMK A01 T02520212  RH  078%=      5-min Rain = 0
KWA1 161147Z 19007KT 25/21 A2999 RMK A01 T02510211  RH  078%=      5-min Rain = 0
KWA1 161148Z 19008KT 25/21 A2999 RMK A01 T02510211  RH  078%=      5-min Rain = 0
KWA1 161149Z 19008KT 25/21 A2999 RMK A01 T02510212  RH  079%=      5-min Rain = 0
KWA1 161150Z 19009KT 25/21 A2999 RMK A01 T02520212  RH  079%=      5-min Rain = 0
KWA1 161151Z 19006KT 25/21 A2999 RMK A01 T02520212  RH  079%=      5-min Rain = 0
KWA1 161152Z 19008KT 25/21 A2999 RMK A01 T02510212  RH  079%=      5-min Rain = 0
KWA1 161153Z 19008KT 25/21 A2999 RMK A01 T02510212  RH  079%=      5-min Rain = 0
KWA1 161154Z 18009KT 25/21 A2999 RMK A01 T02510213  RH  079%=      5-min Rain = 0
KWA1 161155Z 18010KT 25/21 A2999 RMK A01 T02510212  RH  079%=      5-min Rain = 0
KWA1 161156Z 19009KT 25/21 A2999 RMK A01 T02510212  RH  079%=      5-min Rain = 0
KWA1 161157Z 19010KT 25/21 A30 RMK A01 T02510212  RH  079%=      5-min Rain = 0
KWA1 161158Z 19010KT 25/21 A30 RMK A01 T02510212  RH  079%=      5-min Rain = 0
KWA1 161159Z 19009KT 25/21 A30 RMK A01 T02510212  RH  079%=      5-min Rain = 0
KWA1 161200Z 18009KT 25/21 A30 RMK A01 T02520213  RH  079%=      5-min Rain = 0
KWA1 161201Z 18010KT 25/21 A30 RMK A01 T02510213  RH  079%=      5-min Rain = 0
KWA1 161202Z 18011KT 25/21 A30 RMK A01 T02510213  RH  079%=      5-min Rain = 0
KWA1 161203Z 18010KT 25/21 A30 RMK A01 T02510213  RH  079%=      5-min Rain = 0
KWA1 161204Z 19010KT 25/21 A30 RMK A01 T02510213  RH  079%=      5-min Rain = 0
KWA1 161205Z 18008KT 25/21 A30 RMK A01 T02520213  RH  079%=      5-min Rain = 0
KWA1 161206Z 19010KT 25/21 A30 RMK A01 T02520213  RH  079%=      5-min Rain = 0
KWA1 161207Z 19010KT 25/21 A30 RMK A01 T02520213  RH  079%=      5-min Rain = 0
KWA1 161208Z 19009KT 25/21 A30 RMK A01 T02520214  RH  079%=      5-min Rain = 0
KWA1 161209Z 19010KT 25/21 A30 RMK A01 T02520213  RH  079%=      5-min Rain = 0
KWA1 161210Z 19008KT 25/21 A30 RMK A01 T02520213  RH  079%=      5-min Rain = 0
KWA1 161211Z 18009KT 25/21 A30 RMK A01 T02520213  RH  079%=      5-min Rain = 0
KWA1 161212Z 19008KT 25/21 A30 RMK A01 T02520213  RH  079%=      5-min Rain = 0
KWA1 161213Z 19007KT 25/21 A30 RMK A01 T02520213  RH  079%=      5-min Rain = 0
KWA1 161214Z 19008KT 25/21 A30 RMK A01 T02520213  RH  079%=      5-min Rain = 0
KWA1 161215Z 19009KT 25/21 A30 RMK A01 T02520214  RH  079%=      5-min Rain = 0
KWA1 161216Z 19009KT 25/21 A30 RMK A01 T02520214  RH  079%=      5-min Rain = 0
KWA1 161217Z 18008KT 25/21 A3001 RMK A01 T02520214  RH  079%=      5-min Rain = 0
KWA1 161218Z 19008KT 25/21 A3001 RMK A01 T02520214  RH  079%=      5-min Rain = 0
KWA1 161219Z 18009KT 25/21 A3001 RMK A01 T02530214  RH  079%=      5-min Rain = 0
KWA1 161220Z 19010KT 25/21 A3001 RMK A01 T02530214  RH  079%=      5-min Rain = 0
KWA1 161221Z 19009KT 25/21 A3001 RMK A01 T02530214  RH  079%=      5-min Rain = 0
KWA1 161222Z 19008KT 25/21 A3001 RMK A01 T02530214  RH  079%=      5-min Rain = 0
KWA1 161223Z 19008KT 25/21 A3001 RMK A01 T02530214  RH  079%=      5-min Rain = 0
KWA1 161224Z 19008KT 25/22 A3001 RMK A01 T02530215  RH  079%=      5-min Rain = 0
KWA1 161225Z 19008KT 25/22 A3001 RMK A01 T02530215  RH  079%=      5-min Rain = 0
KWA1 161226Z 20009KT 25/21 A3001 RMK A01 T02530214  RH  079%=      5-min Rain = 0
KWA1 161227Z 19008KT 25/22 A3001 RMK A01 T02540215  RH  079%=      5-min Rain = 0
KWA1 161228Z 19009KT 25/22 A3001 RMK A01 T02540215  RH  079%=      5-min Rain = 0
KWA1 161229Z 19009KT 25/22 A3001 RMK A01 T02540215  RH  079%=      5-min Rain = 0
KWA1 161230Z 19012KT 25/22 A3001 RMK A01 T02540215  RH  079%=      5-min Rain = 0
KWA1 161231Z 19010KT 26/22 A3001 RMK A01 T02550215  RH  079%=      5-min Rain = 0
KWA1 161232Z 19010KT 26/22 A3001 RMK A01 T02550215  RH  078%=      5-min Rain = 0
KWA1 161233Z 19009KT 26/22 A3001 RMK A01 T02550215  RH  078%=      5-min Rain = 0
KWA1 161234Z 19009KT 26/22 A3001 RMK A01 T02550215  RH  078%=      5-min Rain = 0
KWA1 161235Z 18011KT 26/22 A3001 RMK A01 T02560215  RH  078%=      5-min Rain = 0
KWA1 161236Z 19013KT 26/22 A3001 RMK A01 T02560215  RH  078%=      5-min Rain = 0
KWA1 161237Z 19010KT 26/22 A3001 RMK A01 T02560215  RH  078%=      5-min Rain = 0
KWA1 161238Z 19010KT 26/22 A3001 RMK A01 T02570216  RH  078%=      5-min Rain = 0
KWA1 161239Z 19009KT 26/22 A3001 RMK A01 T02570216  RH  078%=      5-min Rain = 0
KWA1 161240Z 19008KT 26/22 A3001 RMK A01 T02570216  RH  078%=      5-min Rain = 0
KWA1 161241Z 19010KT 26/22 A3001 RMK A01 T02570216  RH  078%=      5-min Rain = 0
KWA1 161242Z 18009KT 26/22 A3001 RMK A01 T02580216  RH  078%=      5-min Rain = 0
KWA1 161243Z 19012KT 26/22 A3001 RMK A01 T02580216  RH  078%=      5-min Rain = 0
KWA1 161244Z 18014KT 26/22 A3001 RMK A01 T02580216  RH  077%=      5-min Rain = 0
KWA1 161245Z 19014KT 26/22 A3001 RMK A01 T02580216  RH  077%=      5-min Rain = 0
KWA1 161246Z 19012KT 26/22 A3001 RMK A01 T02590216  RH  077%=      5-min Rain = 0
KWA1 161247Z 19013KT 26/22 A3001 RMK A01 T02590216  RH  077%=      5-min Rain = 0
KWA1 161248Z 18011KT 26/22 A3001 RMK A01 T02590216  RH  077%=      5-min Rain = 0
KWA1 161249Z 19011KT 26/22 A3001 RMK A01 T02600216  RH  077%=      5-min Rain = 0
KWA1 161250Z 19011G17KT 26/22 A3001 RMK A01 T02600217  RH  077%=      5-min Rain = 0
KWA1 161251Z 19014KT 26/22 A3001 RMK A01 T02600216  RH  077%=      5-min Rain = 0
KWA1 161252Z 19013KT 26/22 A3001 RMK A01 T02610216  RH  076%=      5-min Rain = 0
KWA1 161253Z 19011KT 26/22 A3001 RMK A01 T02600216  RH  077%=      5-min Rain = 0
KWA1 161254Z 19011KT 26/22 A3001 RMK A01 T02610216  RH  077%=      5-min Rain = 0
KWA1 161255Z 18011KT 26/22 A3001 RMK A01 T02610217  RH  077%=      5-min Rain = 0
KWA1 161256Z 18010KT 26/22 A3001 RMK A01 T02620217  RH  076%=      5-min Rain = 0
KWA1 161257Z 19009KT 26/22 A3001 RMK A01 T02620218  RH  076%=      5-min Rain = 0
KWA1 161258Z 18011KT 26/22 A3001 RMK A01 T02630217  RH  076%=      5-min Rain = 0
KWA1 161259Z 19012KT 26/22 A3001 RMK A01 T02630217  RH  076%=      5-min Rain = 0
KWA1 161300Z 19013KT 26/22 A3001 RMK A01 T02630217  RH  076%=      5-min Rain = 0
KWA1 161301Z 18012KT 26/22 A3001 RMK A01 T02630217  RH  076%=      5-min Rain = 0
KWA1 161302Z 19012KT 26/22 A3001 RMK A01 T02640217  RH  075%=      5-min Rain = 0
KWA1 161303Z 19011KT 26/22 A3001 RMK A01 T02640217  RH  075%=      5-min Rain = 0
KWA1 161304Z 18013KT 26/22 A3001 RMK A01 T02640217  RH  075%=      5-min Rain = 0
KWA1 161305Z 18011KT 27/22 A3001 RMK A01 T02650218  RH  075%=      5-min Rain = 0
KWA1 161306Z 19014KT 27/22 A3001 RMK A01 T02650218  RH  075%=      5-min Rain = 0
KWA1 161307Z 19013KT 27/22 A3001 RMK A01 T02660217  RH  075%=      5-min Rain = 0
KWA1 161308Z 18013KT 27/22 A3001 RMK A01 T02660217  RH  075%=      5-min Rain = 0
KWA1 161309Z 19011KT 27/22 A3001 RMK A01 T02660217  RH  075%=      5-min Rain = 0
KWA1 161310Z 19013KT 27/22 A3001 RMK A01 T02670217  RH  074%=      5-min Rain = 0
KWA1 161311Z 18012KT 27/22 A3001 RMK A01 T02670217  RH  074%=      5-min Rain = 0
KWA1 161312Z 18013KT 27/22 A3001 RMK A01 T02670217  RH  074%=      5-min Rain = 0
KWA1 161313Z 19013KT 27/22 A3001 RMK A01 T02670217  RH  074%=      5-min Rain = 0
KWA1 161314Z 19013KT 27/22 A3001 RMK A01 T02670217  RH  074%=      5-min Rain = 0
KWA1 161315Z 19012KT 27/22 A3001 RMK A01 T02680218  RH  074%=      5-min Rain = 0
KWA1 161316Z 19011KT 27/22 A3001 RMK A01 T02680218  RH  074%=      5-min Rain = 0
KWA1 161317Z 19014KT 27/22 A3001 RMK A01 T02680218  RH  074%=      5-min Rain = 0
KWA1 161318Z 19013KT 27/22 A3001 RMK A01 T02690217  RH  073%=      5-min Rain = 0
KWA1 161319Z 19014KT 27/22 A3001 RMK A01 T02690217  RH  073%=      5-min Rain = 0
KWA1 161320Z 19012KT 27/22 A3001 RMK A01 T02690217  RH  073%=      5-min Rain = 0
KWA1 161321Z 19012KT 27/22 A3001 RMK A01 T02690218  RH  073%=      5-min Rain = 0
KWA1 161322Z 19012KT 27/22 A3001 RMK A01 T02700218  RH  073%=      5-min Rain = 0
KWA1 161323Z 19015KT 27/22 A3001 RMK A01 T02710217  RH  073%=      5-min Rain = 0
KWA1 161324Z 19013KT 27/22 A3001 RMK A01 T02710218  RH  073%=      5-min Rain = 0
KWA1 161325Z 19013KT 27/22 A3001 RMK A01 T02710217  RH  072%=      5-min Rain = 0
KWA1 161326Z 19013KT 27/22 A3001 RMK A01 T02710217  RH  072%=      5-min Rain = 0
KWA1 161327Z 19012KT 27/22 A3001 RMK A01 T02720218  RH  072%=      5-min Rain = 0
KWA1 161328Z 19011KT 27/22 A3001 RMK A01 T02730219  RH  073%=      5-min Rain = 0
KWA1 161329Z 19008KT 27/22 A3001 RMK A01 T02730219  RH  072%=      5-min Rain = 0
KWA1 161330Z 20010KT 27/22 A3001 RMK A01 T02740220  RH  072%=      5-min Rain = 0
KWA1 161331Z 20010KT 28/22 A3002 RMK A01 T02750220  RH  072%=      5-min Rain = 0
KWA1 161332Z 19010KT 28/22 A3001 RMK A01 T02760219  RH  071%=      5-min Rain = 0
KWA1 161333Z 19014KT 28/22 A3001 RMK A01 T02760218  RH  071%=      5-min Rain = 0
KWA1 161334Z 19014KT 28/22 A3001 RMK A01 T02760217  RH  070%=      5-min Rain = 0
KWA1 161335Z 19015KT 28/22 A3001 RMK A01 T02750217  RH  071%=      5-min Rain = 0
KWA1 161336Z 19012KT 28/22 A3001 RMK A01 T02750217  RH  071%=      5-min Rain = 0
KWA1 161337Z 20016KT 28/22 A3001 RMK A01 T02750217  RH  071%=      5-min Rain = 0
KWA1 161338Z 19015KT 28/22 A3001 RMK A01 T02760217  RH  070%=      5-min Rain = 0
KWA1 161339Z 19014KT 28/22 A3001 RMK A01 T02760217  RH  070%=      5-min Rain = 0
KWA1 161340Z 19013KT 28/22 A3001 RMK A01 T02760217  RH  070%=      5-min Rain = 0
KWA1 161341Z 19011KT 28/22 A3001 RMK A01 T02760218  RH  070%=      5-min Rain = 0
KWA1 161342Z 20011KT 28/22 A3001 RMK A01 T02780218  RH  070%=      5-min Rain = 0
KWA1 161343Z 18013KT 28/22 A3001 RMK A01 T02780219  RH  070%=      5-min Rain = 0
KWA1 161344Z 19013KT 28/22 A3001 RMK A01 T02790218  RH  069%=      5-min Rain = 0
KWA1 161345Z 19013KT 28/22 A3001 RMK A01 T02800218  RH  069%=      5-min Rain = 0
KWA1 161346Z 20012KT 28/22 A3002 RMK A01 T02800218  RH  069%=      5-min Rain = 0
KWA1 161347Z 19010KT 28/22 A3002 RMK A01 T02800219  RH  069%=      5-min Rain = 0
KWA1 161348Z 19009KT 28/22 A3002 RMK A01 T02810219  RH  069%=      5-min Rain = 0
KWA1 161349Z 20009KT 28/22 A3002 RMK A01 T02820220  RH  069%=      5-min Rain = 0
KWA1 161350Z 19010KT 28/22 A3002 RMK A01 T02830221  RH  069%=      5-min Rain = 0
KWA1 161351Z 20013KT 28/22 A3002 RMK A01 T02840219  RH  068%=      5-min Rain = 0
KWA1 161352Z 19014KT 28/22 A3002 RMK A01 T02840218  RH  067%=      5-min Rain = 0
KWA1 161353Z 20013KT 28/22 A3002 RMK A01 T02830217  RH  067%=      5-min Rain = 0
KWA1 161354Z 20013KT 28/22 A3002 RMK A01 T02830217  RH  068%=      5-min Rain = 0
KWA1 161355Z 19012KT 28/22 A3002 RMK A01 T02820217  RH  068%=      5-min Rain = 0
KWA1 161356Z 20012KT 28/22 A3002 RMK A01 T02820218  RH  068%=      5-min Rain = 0
KWA1 161357Z 20010KT 28/22 A3002 RMK A01 T02830218  RH  068%=      5-min Rain = 0
KWA1 161358Z 20009KT 28/22 A3002 RMK A01 T02840219  RH  068%=      5-min Rain = 0
KWA1 161359Z 20011KT 29/22 A3002 RMK A01 T02860219  RH  067%=      5-min Rain = 0
KWA1 161400Z 20011KT 29/22 A3002 RMK A01 T02860218  RH  067%=      5-min Rain = 0
KWA1 161401Z 20011KT 29/22 A3002 RMK A01 T02860218  RH  067%=      5-min Rain = 0
KWA1 161402Z 21009KT 29/22 A3002 RMK A01 T02860218  RH  067%=      5-min Rain = 0
KWA1 161403Z 20010KT 29/22 A3002 RMK A01 T02870219  RH  067%=      5-min Rain = 0
KWA1 161404Z 20010KT 29/22 A3002 RMK A01 T02880218  RH  066%=      5-min Rain = 0
KWA1 161405Z 19012KT 29/22 A3002 RMK A01 T02880217  RH  066%=      5-min Rain = 0
KWA1 161406Z 20011KT 29/22 A3002 RMK A01 T02880216  RH  065%=      5-min Rain = 0
KWA1 161407Z 20011KT 29/22 A3002 RMK A01 T02880216  RH  065%=      5-min Rain = 0
KWA1 161408Z 20011KT 29/22 A3002 RMK A01 T02880216  RH  065%=      5-min Rain = 0
KWA1 161409Z 20014KT 29/21 A3002 RMK A01 T02880214  RH  064%=      5-min Rain = 0
KWA1 161410Z 19012KT 29/21 A3002 RMK A01 T02880212  RH  064%=      5-min Rain = 0
KWA1 161411Z 20014KT 29/21 A3002 RMK A01 T02870214  RH  064%=      5-min Rain = 0
KWA1 161412Z 20013KT 29/21 A3002 RMK A01 T02880212  RH  064%=      5-min Rain = 0
KWA1 161413Z 20012KT 29/21 A3002 RMK A01 T02890214  RH  064%=      5-min Rain = 0
KWA1 161414Z 19014KT 29/21 A3002 RMK A01 T02900212  RH  063%=      5-min Rain = 0
KWA1 161415Z 19013G18KT 29/21 A3002 RMK A01 T02900212  RH  063%=      5-min Rain = 0
KWA1 161416Z 19016KT 29/21 A3002 RMK A01 T02900211  RH  062%=      5-min Rain = 0
KWA1 161417Z 19014KT 29/21 A3002 RMK A01 T02900210  RH  062%=      5-min Rain = 0
KWA1 161418Z 20012KT 29/21 A3002 RMK A01 T02910211  RH  062%=      5-min Rain = 0
KWA1 161419Z 19012KT 29/21 A3002 RMK A01 T02910212  RH  062%=      5-min Rain = 0
KWA1 161420Z 19011KT 29/21 A3002 RMK A01 T02920212  RH  062%=      5-min Rain = 0
KWA1 161421Z 20012KT 29/21 A3002 RMK A01 T02930213  RH  062%=      5-min Rain = 0
KWA1 161422Z 20012KT 29/21 A3002 RMK A01 T02930211  RH  061%=      5-min Rain = 0
KWA1 161423Z 20010KT 29/21 A3002 RMK A01 T02940213  RH  062%=      5-min Rain = 0
KWA1 161424Z 20013G19KT 29/21 A3002 RMK A01 T02940213  RH  061%=      5-min Rain = 0
KWA1 161425Z 21013KT 29/21 A3002 RMK A01 T02940209  RH  060%=      5-min Rain = 0
KWA1 161426Z 21010KT 29/21 A3002 RMK A01 T02930211  RH  061%=      5-min Rain = 0
KWA1 161427Z 21014KT 29/21 A3002 RMK A01 T02940210  RH  061%=      5-min Rain = 0
KWA1 161428Z 20010KT 29/21 A3002 RMK A01 T02940209  RH  060%=      5-min Rain = 0
KWA1 161429Z 18010KT 30/21 A3002 RMK A01 T02950212  RH  061%=      5-min Rain = 0
KWA1 161430Z 18011KT 30/21 A3002 RMK A01 T02960210  RH  060%=      5-min Rain = 0
KWA1 161431Z 18012KT 30/21 A3002 RMK A01 T02980210  RH  059%=      5-min Rain = 0
KWA1 161432Z 18012KT 30/21 A3002 RMK A01 T02990210  RH  059%=      5-min Rain = 0
KWA1 161433Z 19013KT 30/21 A3002 RMK A01 T02990208  RH  058%=      5-min Rain = 0
KWA1 161434Z 19011KT 30/21 A3002 RMK A01 T02980210  RH  059%=      5-min Rain = 0
KWA1 161435Z 20010KT 30/21 A3002 RMK A01 T02990210  RH  059%=      5-min Rain = 0
KWA1 161436Z 20013KT 30/21 A3002 RMK A01 T02990209  RH  059%=      5-min Rain = 0
KWA1 161437Z 20013KT 30/21 A3002 RMK A01 T02990209  RH  059%=      5-min Rain = 0
KWA1 161438Z 19014KT 30/21 A3002 RMK A01 T02980209  RH  059%=      5-min Rain = 0
KWA1 161439Z 20012KT 30/21 A3002 RMK A01 T02990210  RH  059%=      5-min Rain = 0
KWA1 161440Z 21012KT 30/21 A3002 RMK A01 T02990209  RH  058%=      5-min Rain = 0
KWA1 161441Z 21013KT 30/21 A3002 RMK A01 T02990208  RH  058%=      5-min Rain = 0
KWA1 161442Z 21012KT 30/21 A3002 RMK A01 T02990208  RH  058%=      5-min Rain = 0
KWA1 161443Z 20011KT 30/21 A3002 RMK A01 T02990210  RH  059%=      5-min Rain = 0
KWA1 161444Z 19014KT 30/21 A3002 RMK A01 T02990207  RH  058%=      5-min Rain = 0
KWA1 161445Z 20014KT 30/21 A3002 RMK A01 T03000209  RH  058%=      5-min Rain = 0
KWA1 161446Z 20011KT 30/21 A3002 RMK A01 T03000210  RH  059%=      5-min Rain = 0
KWA1 161447Z 20013G18KT 30/21 A3002 RMK A01 T03020211  RH  058%=      5-min Rain = 0
KWA1 161448Z 20013KT 30/21 A3002 RMK A01 T03030209  RH  057%=      5-min Rain = 0
KWA1 161449Z 20013KT 30/21 A3002 RMK A01 T03020210  RH  058%=      5-min Rain = 0
KWA1 161450Z 20013KT 30/21 A3002 RMK A01 T03030211  RH  058%=      5-min Rain = 0
KWA1 161451Z 20012KT 30/21 A3002 RMK A01 T03030211  RH  058%=      5-min Rain = 0
KWA1 161452Z 19011KT 30/21 A3002 RMK A01 T03040211  RH  058%=      5-min Rain = 0
KWA1 161453Z 20013KT 30/21 A3002 RMK A01 T03040210  RH  057%=      5-min Rain = 0
KWA1 161454Z 21012KT 30/21 A3002 RMK A01 T03040211  RH  057%=      5-min Rain = 0
KWA1 161455Z 19011KT 30/21 A3002 RMK A01 T03040211  RH  058%=      5-min Rain = 0
KWA1 161456Z 19012KT 31/21 A3002 RMK A01 T03050212  RH  058%=      5-min Rain = 0
KWA1 161457Z 18011KT 31/21 A3002 RMK A01 T03060212  RH  057%=      5-min Rain = 0
KWA1 161458Z 18012KT 31/21 A3002 RMK A01 T03070211  RH  057%=      5-min Rain = 0
KWA1 161459Z 20009KT 31/21 A3002 RMK A01 T03080212  RH  057%=      5-min Rain = 0
KWA1 161500Z 20010KT 31/21 A3002 RMK A01 T03090212  RH  056%=      5-min Rain = 0
KWA1 161501Z 18012KT 31/21 A3002 RMK A01 T03090212  RH  057%=      5-min Rain = 0
KWA1 161502Z 18010KT 31/21 A3002 RMK A01 T03080212  RH  056%=      5-min Rain = 0
KWA1 161503Z 19012KT 31/21 A3002 RMK A01 T03080210  RH  056%=      5-min Rain = 0
KWA1 161504Z 18011KT 31/21 A3002 RMK A01 T03090212  RH  056%=      5-min Rain = 0
KWA1 161505Z 19011KT 31/21 A3002 RMK A01 T03090212  RH  056%=      5-min Rain = 0
KWA1 161506Z 20011KT 31/21 A3002 RMK A01 T03100212  RH  056%=      5-min Rain = 0
KWA1 161507Z 19011KT 31/21 A3002 RMK A01 T03090212  RH  056%=      5-min Rain = 0
KWA1 161508Z 20010KT 31/21 A3002 RMK A01 T03090214  RH  057%=      5-min Rain = 0
KWA1 161509Z 19012KT 31/21 A3002 RMK A01 T03100213  RH  056%=      5-min Rain = 0
KWA1 161510Z 18012KT 31/21 A3002 RMK A01 T03110212  RH  055%=      5-min Rain = 0
KWA1 161511Z 18012KT 31/21 A3002 RMK A01 T03120211  RH  055%=      5-min Rain = 0
KWA1 161512Z 18010KT 31/21 A3002 RMK A01 T03120212  RH  056%=      5-min Rain = 0
KWA1 161513Z 18012KT 31/21 A3002 RMK A01 T03130212  RH  055%=      5-min Rain = 0
KWA1 161514Z 18013KT 31/21 A3002 RMK A01 T03140211  RH  055%=      5-min Rain = 0
KWA1 161515Z 18012KT 31/21 A3002 RMK A01 T03130211  RH  055%=      5-min Rain = 0
KWA1 161516Z 18013KT 31/21 A3002 RMK A01 T03130211  RH  055%=      5-min Rain = 0
KWA1 161517Z 19010KT 31/21 A3002 RMK A01 T03140211  RH  055%=      5-min Rain = 0
KWA1 161518Z 19011KT 32/21 A3002 RMK A01 T03150211  RH  054%=      5-min Rain = 0
KWA1 161519Z 18013KT 32/21 A3002 RMK A01 T03150213  RH  055%=      5-min Rain = 0
KWA1 161520Z 19012KT 32/21 A3002 RMK A01 T03160212  RH  054%=      5-min Rain = 0
KWA1 161521Z 19012KT 32/21 A3002 RMK A01 T03150210  RH  054%=      5-min Rain = 0
KWA1 161522Z 18008KT 31/21 A3002 RMK A01 T03140211  RH  054%=      5-min Rain = 0
KWA1 161523Z 20009KT 31/21 A3002 RMK A01 T03140213  RH  055%=      5-min Rain = 0
KWA1 161524Z 20010KT 32/21 A3002 RMK A01 T03150212  RH  054%=      5-min Rain = 0
KWA1 161525Z 19013KT 31/21 A3002 RMK A01 T03140211  RH  054%=      5-min Rain = 0
KWA1 161526Z 19011KT 32/21 A3002 RMK A01 T03150210  RH  054%=      5-min Rain = 0
KWA1 161527Z 19011KT 32/21 A3002 RMK A01 T03150210  RH  054%=      5-min Rain = 0
KWA1 161528Z 20010KT 32/21 A3002 RMK A01 T03150211  RH  054%=      5-min Rain = 0
KWA1 161529Z 19010KT 32/21 A3002 RMK A01 T03150212  RH  054%=      5-min Rain = 0
KWA1 161530Z 19008KT 32/21 A3002 RMK A01 T03180214  RH  054%=      5-min Rain = 0
KWA1 161531Z 17012KT 32/21 A3002 RMK A01 T03190214  RH  054%=      5-min Rain = 0
KWA1 161532Z 19011KT 32/21 A3002 RMK A01 T03210213  RH  053%=      5-min Rain = 0
KWA1 161533Z 19010KT 32/21 A3002 RMK A01 T03220213  RH  052%=      5-min Rain = 0
KWA1 161534Z 18012KT 32/21 A3002 RMK A01 T03210211  RH  053%=      5-min Rain = 0
KWA1 161535Z 18013KT 32/21 A3002 RMK A01 T03200212  RH  053%=      5-min Rain = 0
KWA1 161536Z 19012KT 32/21 A3002 RMK A01 T03200212  RH  053%=      5-min Rain = 0
KWA1 161537Z 20011KT 32/21 A3002 RMK A01 T03200210  RH  052%=      5-min Rain = 0
KWA1 161538Z 20010KT 32/21 A3002 RMK A01 T03180212  RH  053%=      5-min Rain = 0
KWA1 161539Z 19014KT 32/21 A3002 RMK A01 T03190212  RH  053%=      5-min Rain = 0
KWA1 161540Z 19011KT 32/21 A3002 RMK A01 T03190209  RH  052%=      5-min Rain = 0
KWA1 161541Z 21011KT 32/21 A3002 RMK A01 T03190210  RH  053%=      5-min Rain = 0
KWA1 161542Z 22010KT 32/21 A3002 RMK A01 T03180211  RH  053%=      5-min Rain = 0
KWA1 161543Z 21011KT 32/21 A3002 RMK A01 T03180211  RH  053%=      5-min Rain = 0
KWA1 161544Z 21012KT 32/21 A3002 RMK A01 T03190212  RH  053%=      5-min Rain = 0
KWA1 161545Z 21011KT 32/21 A3002 RMK A01 T03200212  RH  053%=      5-min Rain = 0
KWA1 161546Z 20012KT 32/21 A3002 RMK A01 T03200210  RH  052%=      5-min Rain = 0
KWA1 161547Z 21009KT 32/21 A3003 RMK A01 T03200212  RH  053%=      5-min Rain = 0
KWA1 161548Z 21009KT 32/21 A3003 RMK A01 T03220213  RH  053%=      5-min Rain = 0
KWA1 161549Z 20007KT 32/21 A3003 RMK A01 T03210212  RH  053%=      5-min Rain = 0
KWA1 161550Z 21008KT 32/21 A3003 RMK A01 T03210211  RH  052%=      5-min Rain = 0
KWA1 161551Z 22010KT 32/21 A3003 RMK A01 T03200209  RH  052%=      5-min Rain = 0
KWA1 161552Z 22008KT 32/21 A3003 RMK A01 T03190209  RH  052%=      5-min Rain = 0
KWA1 161553Z 21007KT 32/21 A3003 RMK A01 T03180211  RH  053%=      5-min Rain = 0
KWA1 161554Z 21006KT 32/21 A3003 RMK A01 T03190211  RH  053%=      5-min Rain = 0
KWA1 161555Z 19006KT 32/21 A3003 RMK A01 T03190211  RH  053%=      5-min Rain = 0
KWA1 161556Z 19008KT 32/21 A3003 RMK A01 T03200212  RH  053%=      5-min Rain = 0
KWA1 161557Z 22008KT 32/21 A3003 RMK A01 T03210212  RH  052%=      5-min Rain = 0
KWA1 161558Z 21011KT 32/21 A3003 RMK A01 T03230211  RH  052%=      5-min Rain = 0
KWA1 161559Z 22009KT 32/21 A3003 RMK A01 T03220210  RH  051%=      5-min Rain = 0
KWA1 161600Z 22008KT 32/21 A3003 RMK A01 T03220211  RH  052%=      5-min Rain = 0
KWA1 161601Z 20008KT 32/21 A3003 RMK A01 T03230213  RH  052%=      5-min Rain = 0
KWA1 161602Z 18010KT 33/21 A3003 RMK A01 T03260214  RH  052%=      5-min Rain = 0
KWA1 161603Z 18010KT 33/21 A3003 RMK A01 T03290213  RH  051%=      5-min Rain = 0
KWA1 161604Z 17011KT 33/21 A3003 RMK A01 T03300211  RH  050%=      5-min Rain = 0
KWA1 161605Z 19009KT 33/21 A3003 RMK A01 T03290211  RH  050%=      5-min Rain = 0
KWA1 161606Z 17008KT 33/21 A3003 RMK A01 T03280212  RH  050%=      5-min Rain = 0
KWA1 161607Z 20013G21KT 33/21 A3003 RMK A01 T03290211  RH  050%=      5-min Rain = 0
KWA1 161608Z 19011KT 33/21 A3003 RMK A01 T03290212  RH  050%=      5-min Rain = 0
KWA1 161609Z 19012KT 33/21 A3003 RMK A01 T03280209  RH  049%=      5-min Rain = 0
KWA1 161610Z 17008KT 33/21 A3003 RMK A01 T03260209  RH  050%=      5-min Rain = 0
KWA1 161611Z 20008KT 33/21 A3003 RMK A01 T03260211  RH  051%=      5-min Rain = 0
KWA1 161612Z 21008KT 33/21 A3003 RMK A01 T03280210  RH  050%=      5-min Rain = 0
KWA1 161613Z 20006KT 33/21 A3003 RMK A01 T03270211  RH  050%=      5-min Rain = 0
KWA1 161614Z 18011KT 33/22 A3003 RMK A01 T03290215  RH  051%=      5-min Rain = 0
KWA1 161615Z 19010KT 33/21 A3003 RMK A01 T03310209  RH  049%=      5-min Rain = 0
KWA1 161616Z 19008KT 33/21 A3003 RMK A01 T03290207  RH  049%=      5-min Rain = 0
KWA1 161617Z 21011KT 33/21 A3003 RMK A01 T03290210  RH  050%=      5-min Rain = 0
KWA1 161618Z 21012KT 33/21 A3003 RMK A01 T03290210  RH  050%=      5-min Rain = 0
KWA1 161619Z 21009KT 33/21 A3003 RMK A01 T03270209  RH  050%=      5-min Rain = 0
KWA1 161620Z 21007KT 33/21 A3003 RMK A01 T03260209  RH  050%=      5-min Rain = 0
KWA1 161621Z 21008KT 33/21 A3003 RMK A01 T03270211  RH  051%=      5-min Rain = 0
KWA1 161622Z 22008KT 33/21 A3003 RMK A01 T03270208  RH  050%=      5-min Rain = 0
KWA1 161623Z 22008KT 33/21 A3003 RMK A01 T03260211  RH  051%=      5-min Rain = 0
KWA1 161624Z 23007KT 33/21 A3003 RMK A01 T03270211  RH  050%=      5-min Rain = 0
KWA1 161625Z 22006G12KT 33/21 A3003 RMK A01 T03290213  RH  051%=      5-min Rain = 0
KWA1 161626Z 20009KT 33/21 A3003 RMK A01 T03310213  RH  050%=      5-min Rain = 0
KWA1 161627Z 21010KT 33/21 A3003 RMK A01 T03320213  RH  050%=      5-min Rain = 0
KWA1 161628Z 21007KT 33/21 A3003 RMK A01 T03310210  RH  049%=      5-min Rain = 0
KWA1 161629Z 20010G15KT 33/21 A3003 RMK A01 T03300211  RH  050%=      5-min Rain = 0
KWA1 161630Z 17012KT 33/21 A3003 RMK A01 T03320213  RH  050%=      5-min Rain = 0
KWA1 161631Z 19013KT 34/21 A3003 RMK A01 T03360210  RH  048%=      5-min Rain = 0
KWA1 161632Z 21010KT 34/21 A3003 RMK A01 T03360211  RH  048%=      5-min Rain = 0
KWA1 161633Z 20010KT 34/21 A3003 RMK A01 T03360211  RH  048%=      5-min Rain = 0
KWA1 161634Z 20008KT 34/21 A3003 RMK A01 T03350210  RH  048%=      5-min Rain = 0
KWA1 161635Z 20008KT 33/21 A3003 RMK A01 T03340210  RH  048%=      5-min Rain = 0
KWA1 161636Z 23006KT 33/21 A3003 RMK A01 T03340210  RH  048%=      5-min Rain = 0
KWA1 161637Z 22007KT 34/21 A3003 RMK A01 T03350213  RH  049%=      5-min Rain = 0
KWA1 161638Z 21009KT 34/21 A3003 RMK A01 T03370211  RH  048%=      5-min Rain = 0
KWA1 161639Z 19012KT 34/21 A3003 RMK A01 T03370213  RH  048%=      5-min Rain = 0
KWA1 161640Z 19010KT 34/21 A3003 RMK A01 T03390210  RH  047%=      5-min Rain = 0
KWA1 161641Z 18012KT 34/21 A3003 RMK A01 T03390209  RH  047%=      5-min Rain = 0
KWA1 161642Z 16008KT 34/21 A3003 RMK A01 T03370207  RH  046%=      5-min Rain = 0
KWA1 161643Z 19007KT 34/21 A3003 RMK A01 T03360208  RH  047%=      5-min Rain = 0
KWA1 161644Z 21010KT 34/21 A3003 RMK A01 T03350207  RH  047%=      5-min Rain = 0
KWA1 161645Z 21009KT 34/21 A3003 RMK A01 T03350210  RH  048%=      5-min Rain = 0
KWA1 161646Z 21007KT 34/21 A3003 RMK A01 T03360210  RH  048%=      5-min Rain = 0
KWA1 161647Z 20008KT 34/21 A3003 RMK A01 T03370211  RH  048%=      5-min Rain = 0
KWA1 161648Z 17010KT 34/21 A3003 RMK A01 T03380208  RH  047%=      5-min Rain = 0
KWA1 161649Z 17013KT 34/21 A3003 RMK A01 T03390207  RH  046%=      5-min Rain = 0
KWA1 161650Z 18009KT 34/21 A3003 RMK A01 T03400209  RH  046%=      5-min Rain = 0
KWA1 161651Z 18007KT 34/21 A3003 RMK A01 T03410208  RH  046%=      5-min Rain = 0
KWA1 161652Z 17012KT 34/21 A3003 RMK A01 T03400209  RH  046%=      5-min Rain = 0
KWA1 161653Z 16010KT 34/21 A3003 RMK A01 T03400208  RH  046%=      5-min Rain = 0
KWA1 161654Z 17009KT 34/21 A3003 RMK A01 T03390208  RH  046%=      5-min Rain = 0
KWA1 161655Z 17006KT 34/21 A3003 RMK A01 T03380207  RH  046%=      5-min Rain = 0
KWA1 161656Z 15006KT 34/21 A3003 RMK A01 T03380207  RH  046%=      5-min Rain = 0
KWA1 161657Z 18005KT 34/21 A3003 RMK A01 T03370206  RH  047%=      5-min Rain = 0
KWA1 161658Z 19009KT 34/21 A3003 RMK A01 T03370208  RH  047%=      5-min Rain = 0
KWA1 161659Z 17008KT 34/21 A3003 RMK A01 T03390207  RH  046%=      5-min Rain = 0
KWA1 161700Z 17008KT 34/21 A3003 RMK A01 T03430212  RH  047%=      5-min Rain = 0
KWA1 161701Z 18009KT 35/21 A3003 RMK A01 T03470210  RH  045%=      5-min Rain = 0
KWA1 161702Z 18009KT 35/21 A3003 RMK A01 T03470209  RH  045%=      5-min Rain = 0
KWA1 161703Z 19008KT 35/21 A3003 RMK A01 T03450209  RH  045%=      5-min Rain = 0
KWA1 161704Z 19008KT 34/21 A3003 RMK A01 T03440208  RH  045%=      5-min Rain = 0
KWA1 161705Z 17013G19KT 34/21 A3003 RMK A01 T03430208  RH  045%=      5-min Rain = 0
KWA1 161706Z 18010KT 34/21 A3003 RMK A01 T03440210  RH  045%=      5-min Rain = 0
KWA1 161707Z 19008KT 35/21 A3003 RMK A01 T03480209  RH  044%=      5-min Rain = 0
KWA1 161708Z 20010G15KT 34/21 A3003 RMK A01 T03440207  RH  045%=      5-min Rain = 0
KWA1 161709Z 18011KT 35/21 A3003 RMK A01 T03450210  RH  045%=      5-min Rain = 0
KWA1 161710Z 17009KT 35/21 A3003 RMK A01 T03470208  RH  044%=      5-min Rain = 0
KWA1 161711Z 16010KT 35/21 A3003 RMK A01 T03500209  RH  044%=      5-min Rain = 0
KWA1 161712Z 18011KT 35/21 A3003 RMK A01 T03500209  RH  044%=      5-min Rain = 0
KWA1 161713Z 19012KT 35/21 A3003 RMK A01 T03490206  RH  043%=      5-min Rain = 0
KWA1 161714Z 17010KT 35/21 A3003 RMK A01 T03450206  RH  044%=      5-min Rain = 0
KWA1 161715Z 17010KT 35/21 A3003 RMK A01 T03450207  RH  045%=      5-min Rain = 0
KWA1 161716Z 20008KT 35/21 A3003 RMK A01 T03460206  RH  044%=      5-min Rain = 0
KWA1 161717Z 18008KT 35/21 A3003 RMK A01 T03470208  RH  044%=      5-min Rain = 0
KWA1 161718Z 15009KT 35/21 A3003 RMK A01 T03480206  RH  044%=      5-min Rain = 0
KWA1 161719Z 17010KT 35/21 A3003 RMK A01 T03490208  RH  044%=      5-min Rain = 0
KWA1 161720Z 19010KT 35/21 A3003 RMK A01 T03490207  RH  043%=      5-min Rain = 0
KWA1 161721Z 21009KT 35/21 A3003 RMK A01 T03490207  RH  044%=      5-min Rain = 0
KWA1 161722Z 20006KT 35/21 A3003 RMK A01 T03470208  RH  044%=      5-min Rain = 0
KWA1 161723Z 20006KT 35/21 A3003 RMK A01 T03460206  RH  044%=      5-min Rain = 0
KWA1 161724Z 19004KT 34/21 A3003 RMK A01 T03430205  RH  044%=      5-min Rain = 0
KWA1 161725Z 18006KT 34/21 A3003 RMK A01 T03410205  RH  045%=      5-min Rain = 0
KWA1 161726Z 18011KT 34/21 A3003 RMK A01 T03430207  RH  045%=      5-min Rain = 0
KWA1 161727Z 18010KT 35/20 A3003 RMK A01 T03470204  RH  043%=      5-min Rain = 0
KWA1 161728Z 16009KT 35/21 A3003 RMK A01 T03510206  RH  043%=      5-min Rain = 0
KWA1 161729Z 15011KT 35/21 A3003 RMK A01 T03510205  RH  043%=      5-min Rain = 0
KWA1 161730Z 15010KT 35/20 A3003 RMK A01 T03490204  RH  043%=      5-min Rain = 0
KWA1 161731Z 14008KT 35/20 A3003 RMK A01 T03480202  RH  042%=      5-min Rain = 0
KWA1 161732Z 18012KT 35/21 A3003 RMK A01 T03450206  RH  044%=      5-min Rain = 0
KWA1 161733Z 19011KT 35/20 A3003 RMK A01 T03480203  RH  043%=      5-min Rain = 0
KWA1 161734Z 18007KT 35/20 A3003 RMK A01 T03480203  RH  043%=      5-min Rain = 0
KWA1 161735Z 19007G13KT 35/20 A3003 RMK A01 T03460203  RH  043%=      5-min Rain = 0
KWA1 161736Z 19011KT 35/20 A3003 RMK A01 T03460202  RH  043%=      5-min Rain = 0
KWA1 161737Z 19007KT 35/21 A3003 RMK A01 T03470205  RH  043%=      5-min Rain = 0
KWA1 161738Z 20009KT 35/21 A3003 RMK A01 T03500205  RH  043%=      5-min Rain = 0
KWA1 161739Z 22008KT 35/20 A3003 RMK A01 T03500201  RH  042%=      5-min Rain = 0
KWA1 161740Z 20008G13KT 35/20 A3003 RMK A01 T03480201  RH  042%=      5-min Rain = 0
KWA1 161741Z 20009KT 35/21 A3003 RMK A01 T03490206  RH  043%=      5-min Rain = 0
KWA1 161742Z 20009KT 35/20 A3003 RMK A01 T03510203  RH  042%=      5-min Rain = 0
KWA1 161743Z 20007KT 35/20 A3003 RMK A01 T03490203  RH  043%=      5-min Rain = 0
KWA1 161744Z 22004KT 35/20 A3003 RMK A01 T03470201  RH  043%=      5-min Rain = 0
KWA1 161745Z 17012KT 35/21 A3003 RMK A01 T03490208  RH  044%=      5-min Rain = 0
KWA1 161746Z 17014KT 36/20 A3003 RMK A01 T03550203  RH  041%=      5-min Rain = 0
KWA1 161747Z 16013KT 36/20 A3003 RMK A01 T03560201  RH  041%=      5-min Rain = 0
KWA1 161748Z 16011KT 36/20 A3003 RMK A01 T03550196  RH  039%=      5-min Rain = 0
KWA1 161749Z 17011KT 35/20 A3003 RMK A01 T03510198  RH  041%=      5-min Rain = 0
KWA1 161750Z 17013KT 35/20 A3003 RMK A01 T03510199  RH  041%=      5-min Rain = 0
KWA1 161751Z 17011KT 35/20 A3003 RMK A01 T03510201  RH  041%=      5-min Rain = 0
KWA1 161752Z 18011KT 35/20 A3003 RMK A01 T03530204  RH  042%=      5-min Rain = 0
KWA1 161753Z 18011KT 35/20 A3003 RMK A01 T03540203  RH  041%=      5-min Rain = 0
KWA1 161754Z 16010KT 35/20 A3003 RMK A01 T03540202  RH  041%=      5-min Rain = 0
KWA1 161755Z 17010KT 35/20 A3003 RMK A01 T03520199  RH  041%=      5-min Rain = 0
KWA1 161756Z 17012KT 35/20 A3003 RMK A01 T03520200  RH  041%=      5-min Rain = 0
KWA1 161757Z 19008KT 35/20 A3003 RMK A01 T03520200  RH  041%=      5-min Rain = 0
KWA1 161758Z 21006KT 35/20 A3003 RMK A01 T03510199  RH  041%=      5-min Rain = 0
KWA1 161759Z 21005KT 35/20 A3002 RMK A01 T03480199  RH  042%=      5-min Rain = 0
KWA1 161800Z 22006KT 35/20 A3002 RMK A01 T03470201  RH  042%=      5-min Rain = 0
KWA1 161801Z 22007KT 35/20 A3003 RMK A01 T03460198  RH  042%=      5-min Rain = 0
KWA1 161802Z 20011KT 35/20 A3003 RMK A01 T03460198  RH  042%=      5-min Rain = 0
KWA1 161803Z 20009KT 35/20 A3002 RMK A01 T03450196  RH  042%=      5-min Rain = 0
KWA1 161804Z 20010KT 35/19 A3002 RMK A01 T03450194  RH  041%=      5-min Rain = 0
KWA1 161805Z 22011KT 35/19 A3002 RMK A01 T03450194  RH  041%=      5-min Rain = 0
KWA1 161806Z 21013KT 35/20 A3002 RMK A01 T03480195  RH  041%=      5-min Rain = 0
KWA1 161807Z 19009KT 35/20 A3002 RMK A01 T03520199  RH  041%=      5-min Rain = 0
KWA1 161808Z 19010KT 36/20 A3002 RMK A01 T03560199  RH  040%=      5-min Rain = 0
KWA1 161809Z 18011KT 36/20 A3002 RMK A01 T03590199  RH  039%=      5-min Rain = 0
KWA1 161810Z 16007KT 36/20 A3002 RMK A01 T03580201  RH  040%=      5-min Rain = 0
KWA1 161811Z 19007KT 36/21 A3002 RMK A01 T03590205  RH  041%=      5-min Rain = 0
KWA1 161812Z 17011KT 36/20 A3002 RMK A01 T03620203  RH  040%=      5-min Rain = 0
KWA1 161813Z 16010KT 36/20 A3002 RMK A01 T03630202  RH  039%=      5-min Rain = 0
KWA1 161814Z 16010G15KT 36/20 A3002 RMK A01 T03640201  RH  039%=      5-min Rain = 0
KWA1 161815Z 16011KT 36/20 A3002 RMK A01 T03630200  RH  038%=      5-min Rain = 0
KWA1 161816Z 14009KT 36/20 A3002 RMK A01 T03600195  RH  038%=      5-min Rain = 0
KWA1 161817Z 14008KT 36/20 A3002 RMK A01 T03560195  RH  039%=      5-min Rain = 0
KWA1 161818Z 14009KT 36/20 A3002 RMK A01 T03550196  RH  039%=      5-min Rain = 0
KWA1 161819Z 16016G22KT 36/20 A3002 RMK A01 T03560197  RH  039%=      5-min Rain = 0
KWA1 161820Z 19009KT 36/20 A3002 RMK A01 T03580198  RH  039%=      5-min Rain = 0
KWA1 161821Z 19010KT 36/20 A3002 RMK A01 T03560196  RH  039%=      5-min Rain = 0
KWA1 161822Z 18012KT 35/20 A3002 RMK A01 T03540197  RH  040%=      5-min Rain = 0
KWA1 161823Z 17012KT 36/19 A3002 RMK A01 T03570192  RH  038%=      5-min Rain = 0
KWA1 161824Z 16013KT 36/19 A3002 RMK A01 T03570192  RH  038%=      5-min Rain = 0
KWA1 161825Z 15012KT 36/19 A3002 RMK A01 T03570194  RH  038%=      5-min Rain = 0
KWA1 161826Z 15012KT 36/20 A3002 RMK A01 T03620197  RH  038%=      5-min Rain = 0
KWA1 161827Z 16012KT 36/19 A3002 RMK A01 T03640193  RH  037%=      5-min Rain = 0
KWA1 161828Z 16012KT 36/19 A3002 RMK A01 T03620193  RH  037%=      5-min Rain = 0
KWA1 161829Z 15011KT 36/19 A3002 RMK A01 T03610192  RH  037%=      5-min Rain = 0
KWA1 161830Z 16011KT 36/19 A3002 RMK A01 T03600194  RH  038%=      5-min Rain = 0
KWA1 161831Z 15009KT 36/19 A3002 RMK A01 T03590188  RH  037%=      5-min Rain = 0
KWA1 161832Z 15013KT 36/19 A3002 RMK A01 T03560189  RH  038%=      5-min Rain = 0
KWA1 161833Z 14013KT 36/19 A3002 RMK A01 T03560187  RH  037%=      5-min Rain = 0
KWA1 161834Z 15014KT 36/19 A3002 RMK A01 T03570185  RH  036%=      5-min Rain = 0
KWA1 161835Z 14011KT 36/19 A3002 RMK A01 T03570187  RH  037%=      5-min Rain = 0
KWA1 161836Z 15008KT 36/19 A3002 RMK A01 T03560185  RH  037%=      5-min Rain = 0
KWA1 161837Z 14011KT 35/19 A3002 RMK A01 T03540185  RH  037%=      5-min Rain = 0
KWA1 161838Z 16010KT 36/19 A3002 RMK A01 T03550190  RH  038%=      5-min Rain = 0
KWA1 161839Z 17010KT 36/19 A3002 RMK A01 T03590189  RH  037%=      5-min Rain = 0
KWA1 161840Z 15011KT 36/19 A3001 RMK A01 T03580187  RH  037%=      5-min Rain = 0
KWA1 161841Z 15010KT 36/19 A3001 RMK A01 T03570188  RH  037%=      5-min Rain = 0
KWA1 161842Z 16012KT 36/19 A3001 RMK A01 T03590193  RH  038%=      5-min Rain = 0
KWA1 161843Z 15011KT 36/19 A3001 RMK A01 T03620189  RH  036%=      5-min Rain = 0
KWA1 161844Z 16010KT 36/19 A3001 RMK A01 T03610190  RH  037%=      5-min Rain = 0
KWA1 161845Z 16011KT 36/19 A3001 RMK A01 T03630190  RH  036%=      5-min Rain = 0
KWA1 161846Z 15012KT 37/19 A3001 RMK A01 T03650188  RH  035%=      5-min Rain = 0
KWA1 161847Z 14009KT 36/19 A3001 RMK A01 T03640186  RH  035%=      5-min Rain = 0
KWA1 161848Z 14008KT 36/18 A3001 RMK A01 T03600183  RH  035%=      5-min Rain = 0
KWA1 161849Z 15012KT 36/19 A3001 RMK A01 T03590186  RH  036%=      5-min Rain = 0
KWA1 161850Z 15012KT 36/18 A3001 RMK A01 T03620184  RH  035%=      5-min Rain = 0
KWA1 161851Z 15011KT 36/19 A3002 RMK A01 T03620186  RH  036%=      5-min Rain = 0
KWA1 161852Z 16009KT 36/18 A3001 RMK A01 T03590184  RH  036%=      5-min Rain = 0
KWA1 161853Z 15010KT 36/19 A3001 RMK A01 T03610188  RH  036%=      5-min Rain = 0
KWA1 161854Z 16011KT 36/19 A3001 RMK A01 T03640189  RH  036%=      5-min Rain = 0
KWA1 161855Z 16013KT 37/19 A3001 RMK A01 T03670190  RH  036%=      5-min Rain = 0
KWA1 161856Z 15011KT 37/19 A3001 RMK A01 T03660188  RH  035%=      5-min Rain = 0
KWA1 161857Z 15009KT 36/19 A3001 RMK A01 T03630188  RH  036%=      5-min Rain = 0
KWA1 161858Z 14010KT 36/19 A3001 RMK A01 T03600185  RH  036%=      5-min Rain = 0
KWA1 161859Z 14009KT 36/19 A3001 RMK A01 T03590189  RH  037%=      5-min Rain = 0
KWA1 161900Z 15012KT 36/19 A3001 RMK A01 T03600189  RH  037%=      5-min Rain = 0
KWA1 161901Z 16011KT 36/19 A3001 RMK A01 T03610189  RH  036%=      5-min Rain = 0
KWA1 161902Z 14011KT 36/19 A3001 RMK A01 T03610189  RH  037%=      5-min Rain = 0
KWA1 161903Z 15012KT 36/19 A3001 RMK A01 T03610189  RH  037%=      5-min Rain = 0
KWA1 161904Z 15009KT 36/19 A3001 RMK A01 T03610189  RH  037%=      5-min Rain = 0
KWA1 161905Z 16008KT 36/19 A3001 RMK A01 T03620192  RH  037%=      5-min Rain = 0
KWA1 161906Z 16007KT 36/19 A3001 RMK A01 T03620187  RH  036%=      5-min Rain = 0
KWA1 161907Z 15010KT 36/19 A3001 RMK A01 T03610189  RH  037%=      5-min Rain = 0
KWA1 161908Z 13009KT 36/19 A3001 RMK A01 T03600191  RH  037%=      5-min Rain = 0
KWA1 161909Z 12005KT 36/19 A3001 RMK A01 T03590189  RH  037%=      5-min Rain = 0
KWA1 161910Z 12004KT 36/19 A3001 RMK A01 T03560186  RH  037%=      5-min Rain = 0
KWA1 161911Z 14005KT 35/19 A3001 RMK A01 T03530187  RH  038%=      5-min Rain = 0
KWA1 161912Z 17008KT 35/19 A3001 RMK A01 T03520187  RH  038%=      5-min Rain = 0
KWA1 161913Z 15011KT 36/19 A3001 RMK A01 T03550191  RH  038%=      5-min Rain = 0
KWA1 161914Z 14014KT 36/19 A3001 RMK A01 T03610189  RH  037%=      5-min Rain = 0
KWA1 161915Z 14012KT 36/19 A3001 RMK A01 T03620187  RH  036%=      5-min Rain = 0
KWA1 161916Z 13016KT 37/19 A3001 RMK A01 T03650189  RH  036%=      5-min Rain = 0
KWA1 161917Z 13013KT 36/19 A3001 RMK A01 T03640188  RH  036%=      5-min Rain = 0
KWA1 161918Z 13010KT 36/19 A3001 RMK A01 T03620187  RH  036%=      5-min Rain = 0
KWA1 161919Z 12011KT 36/18 A3001 RMK A01 T03620184  RH  035%=      5-min Rain = 0
KWA1 161920Z 12011KT 36/19 A3001 RMK A01 T03620185  RH  035%=      5-min Rain = 0
KWA1 161921Z 12010KT 36/19 A3001 RMK A01 T03640188  RH  036%=      5-min Rain = 0
KWA1 161922Z 13010KT 37/19 A30 RMK A01 T03650190  RH  036%=      5-min Rain = 0
KWA1 161923Z 15009KT 37/19 A3001 RMK A01 T03650192  RH  036%=      5-min Rain = 0
KWA1 161924Z 15009KT 36/19 A3001 RMK A01 T03640189  RH  036%=      5-min Rain = 0
KWA1 161925Z 13008KT 36/19 A3001 RMK A01 T03590185  RH  036%=      5-min Rain = 0
KWA1 161926Z 14010KT 36/19 A30 RMK A01 T03570185  RH  036%=      5-min Rain = 0
KWA1 161927Z 15008KT 36/18 A30 RMK A01 T03570183  RH  036%=      5-min Rain = 0
KWA1 161928Z 12010KT 36/19 A30 RMK A01 T03550185  RH  037%=      5-min Rain = 0
KWA1 161929Z 13009KT 36/19 A30 RMK A01 T03560189  RH  038%=      5-min Rain = 0
KWA1 161930Z 15008KT 36/19 A30 RMK A01 T03590191  RH  037%=      5-min Rain = 0
KWA1 161931Z 16013KT 36/19 A30 RMK A01 T03600187  RH  036%=      5-min Rain = 0
KWA1 161932Z 17009KT 36/19 A30 RMK A01 T03630186  RH  035%=      5-min Rain = 0
KWA1 161933Z 19007KT 37/19 A30 RMK A01 T03680188  RH  035%=      5-min Rain = 0
KWA1 161934Z 19008KT 37/19 A30 RMK A01 T03700189  RH  035%=      5-min Rain = 0
KWA1 161935Z 18007KT 37/19 A30 RMK A01 T03700188  RH  035%=      5-min Rain = 0
KWA1 161936Z 16008KT 37/19 A30 RMK A01 T03700190  RH  035%=      5-min Rain = 0
KWA1 161937Z 16006KT 37/19 A30 RMK A01 T03700187  RH  034%=      5-min Rain = 0
KWA1 161938Z 16011KT 37/19 A30 RMK A01 T03680190  RH  035%=      5-min Rain = 0
KWA1 161939Z 15012G17KT 37/19 A30 RMK A01 T03680185  RH  034%=      5-min Rain = 0
KWA1 161940Z 15013G18KT 37/19 A30 RMK A01 T03650185  RH  035%=      5-min Rain = 0
KWA1 161941Z 15013KT 36/19 A30 RMK A01 T03640186  RH  035%=      5-min Rain = 0
KWA1 161942Z 16012KT 37/19 A30 RMK A01 T03650188  RH  036%=      5-min Rain = 0
KWA1 161943Z 17011KT 37/19 A30 RMK A01 T03670187  RH  035%=      5-min Rain = 0
KWA1 161944Z 15013KT 37/19 A30 RMK A01 T03700186  RH  034%=      5-min Rain = 0
KWA1 161945Z 16011KT 37/19 A30 RMK A01 T03720185  RH  034%=      5-min Rain = 0
KWA1 161946Z 15009KT 37/18 A30 RMK A01 T03690183  RH  034%=      5-min Rain = 0
KWA1 161947Z 16009KT 37/18 A30 RMK A01 T03650182  RH  034%=      5-min Rain = 0
KWA1 161948Z 17008KT 37/18 A30 RMK A01 T03660178  RH  033%=      5-min Rain = 0
KWA1 161949Z 15006KT 37/18 A30 RMK A01 T03650184  RH  035%=      5-min Rain = 0
KWA1 161950Z 16009KT 36/18 A30 RMK A01 T03640184  RH  035%=      5-min Rain = 0
KWA1 161951Z 15006KT 36/18 A30 RMK A01 T03640184  RH  035%=      5-min Rain = 0
KWA1 161952Z 15010KT 36/19 A30 RMK A01 T03630186  RH  035%=      5-min Rain = 0
KWA1 161953Z 15013KT 37/19 A30 RMK A01 T03650188  RH  035%=      5-min Rain = 0
KWA1 161954Z 13011KT 37/18 A30 RMK A01 T03650183  RH  034%=      5-min Rain = 0
KWA1 161955Z 13008KT 36/18 A30 RMK A01 T03590179  RH  035%=      5-min Rain = 0
KWA1 161956Z 12008G15KT 36/18 A30 RMK A01 T03570180  RH  035%=      5-min Rain = 0
KWA1 161957Z 13008KT 36/18 A2999 RMK A01 T03560179  RH  035%=      5-min Rain = 0
KWA1 161958Z 15008KT 35/18 A2999 RMK A01 T03540181  RH  036%=      5-min Rain = 0
KWA1 161959Z 17012KT 36/19 A2999 RMK A01 T03560185  RH  037%=      5-min Rain = 0
KWA1 162000Z 15012KT 36/19 A2999 RMK A01 T03620187  RH  036%=      5-min Rain = 0
KWA1 162001Z 15011KT 36/19 A2999 RMK A01 T03620187  RH  036%=      5-min Rain = 0
KWA1 162002Z 17011KT 36/19 A2999 RMK A01 T03630187  RH  036%=      5-min Rain = 0
KWA1 162003Z 17013KT 37/19 A2999 RMK A01 T03650190  RH  036%=      5-min Rain = 0
KWA1 162004Z 17011KT 37/19 A2999 RMK A01 T03660189  RH  035%=      5-min Rain = 0
KWA1 162005Z 17010KT 37/19 A2999 RMK A01 T03670188  RH  035%=      5-min Rain = 0
KWA1 162006Z 19007KT 37/19 A2999 RMK A01 T03660186  RH  035%=      5-min Rain = 0
KWA1 162007Z 21008KT 37/19 A2999 RMK A01 T03660191  RH  036%=      5-min Rain = 0
KWA1 162008Z 14007KT 37/19 A2999 RMK A01 T03700193  RH  036%=      5-min Rain = 0
KWA1 162009Z 16005G10KT 37/19 A2999 RMK A01 T03710188  RH  034%=      5-min Rain = 0
KWA1 162010Z 17010KT 37/19 A2999 RMK A01 T03700193  RH  036%=      5-min Rain = 0
KWA1 162011Z 14015KT 37/19 A2999 RMK A01 T03710191  RH  035%=      5-min Rain = 0
KWA1 162012Z 14012KT 37/19 A2999 RMK A01 T03710188  RH  034%=      5-min Rain = 0
KWA1 162013Z 13012KT 37/19 A2999 RMK A01 T03680187  RH  035%=      5-min Rain = 0
KWA1 162014Z 12009KT 37/19 A2999 RMK A01 T03660186  RH  035%=      5-min Rain = 0
KWA1 162015Z 14010KT 37/19 A2999 RMK A01 T03660187  RH  035%=      5-min Rain = 0
KWA1 162016Z 11008KT 37/18 A2999 RMK A01 T03650182  RH  034%=      5-min Rain = 0
KWA1 162017Z 13009KT 36/18 A2999 RMK A01 T03590183  RH  035%=      5-min Rain = 0
KWA1 162018Z 15008KT 36/19 A2999 RMK A01 T03590185  RH  036%=      5-min Rain = 0
KWA1 162019Z 13009KT 36/18 A2998 RMK A01 T03600184  RH  036%=      5-min Rain = 0
KWA1 162020Z 14013KT 36/18 A2999 RMK A01 T03620183  RH  035%=      5-min Rain = 0
KWA1 162021Z 15014KT 37/18 A2999 RMK A01 T03660183  RH  034%=      5-min Rain = 0
KWA1 162022Z 16012KT 37/18 A2999 RMK A01 T03690182  RH  033%=      5-min Rain = 0
KWA1 162023Z 16011KT 37/18 A2998 RMK A01 T03690179  RH  033%=      5-min Rain = 0
KWA1 162024Z 17011KT 37/18 A2998 RMK A01 T03700180  RH  033%=      5-min Rain = 0
KWA1 162025Z 16011KT 37/18 A2998 RMK A01 T03710179  RH  032%=      5-min Rain = 0
KWA1 162026Z 16013KT 37/18 A2998 RMK A01 T03690181  RH  033%=      5-min Rain = 0
KWA1 162027Z 16013KT 37/18 A2998 RMK A01 T03680184  RH  034%=      5-min Rain = 0
KWA1 162028Z 17009KT 37/19 A2998 RMK A01 T03670186  RH  035%=      5-min Rain = 0
KWA1 162029Z 16007KT 37/18 A2998 RMK A01 T03660184  RH  034%=      5-min Rain = 0
KWA1 162030Z 14009KT 37/18 A2998 RMK A01 T03650184  RH  035%=      5-min Rain = 0
KWA1 162031Z 17007KT 36/19 A2998 RMK A01 T03640186  RH  035%=      5-min Rain = 0
KWA1 162032Z 18008KT 37/19 A2998 RMK A01 T03670189  RH  035%=      5-min Rain = 0
KWA1 162033Z 16007KT 37/19 A2998 RMK A01 T03690185  RH  034%=      5-min Rain = 0
KWA1 162034Z 16009KT 37/19 A2998 RMK A01 T03670185  RH  034%=      5-min Rain = 0
KWA1 162035Z 15011KT 37/19 A2998 RMK A01 T03680185  RH  034%=      5-min Rain = 0
KWA1 162036Z 17009KT 37/19 A2998 RMK A01 T03700186  RH  034%=      5-min Rain = 0
KWA1 162037Z 16004KT 37/19 A2998 RMK A01 T03700186  RH  034%=      5-min Rain = 0
KWA1 162038Z 15006G11KT 37/19 A2998 RMK A01 T03680186  RH  035%=      5-min Rain = 0
KWA1 162039Z 15010KT 37/19 A2998 RMK A01 T03700187  RH  034%=      5-min Rain = 0
KWA1 162040Z 13012KT 37/18 A2998 RMK A01 T03740184  RH  033%=      5-min Rain = 0
KWA1 162041Z 14013KT 37/18 A2998 RMK A01 T03740181  RH  032%=      5-min Rain = 0
KWA1 162042Z 14013KT 37/18 A2998 RMK A01 T03690183  RH  034%=      5-min Rain = 0
KWA1 162043Z 14010KT 37/19 A2998 RMK A01 T03690186  RH  034%=      5-min Rain = 0
KWA1 162044Z 13011KT 37/18 A2998 RMK A01 T03660183  RH  034%=      5-min Rain = 0
KWA1 162045Z 14012KT 37/19 A2998 RMK A01 T03660185  RH  035%=      5-min Rain = 0
KWA1 162046Z 13013KT 37/18 A2998 RMK A01 T03650184  RH  035%=      5-min Rain = 0
KWA1 162047Z 13014KT 36/18 A2998 RMK A01 T03630183  RH  035%=      5-min Rain = 0
KWA1 162048Z 13011KT 36/18 A2998 RMK A01 T03600182  RH  035%=      5-min Rain = 0
KWA1 162049Z 12009KT 36/18 A2998 RMK A01 T03590181  RH  035%=      5-min Rain = 0
KWA1 162050Z 12008KT 36/18 A2998 RMK A01 T03610184  RH  035%=      5-min Rain = 0
KWA1 162051Z 11008KT 37/19 A2997 RMK A01 T03670186  RH  035%=      5-min Rain = 0
KWA1 162052Z 11007KT 37/18 A2997 RMK A01 T03710182  RH  033%=      5-min Rain = 0
KWA1 162053Z 13008KT 37/18 A2997 RMK A01 T03700183  RH  033%=      5-min Rain = 0
KWA1 162054Z 14010KT 37/18 A2997 RMK A01 T03680184  RH  034%=      5-min Rain = 0
KWA1 162055Z 17012KT 37/18 A2997 RMK A01 T03670182  RH  034%=      5-min Rain = 0
KWA1 162056Z 17012KT 37/19 A2997 RMK A01 T03690185  RH  034%=      5-min Rain = 0
KWA1 162057Z 16014KT 37/18 A2997 RMK A01 T03700183  RH  033%=      5-min Rain = 0
KWA1 162058Z 17013KT 37/18 A2997 RMK A01 T03690182  RH  033%=      5-min Rain = 0
KWA1 162059Z 16011KT 37/18 A2997 RMK A01 T03670181  RH  034%=      5-min Rain = 0
KWA1 162100Z 16011KT 37/18 A2997 RMK A01 T03660182  RH  034%=      5-min Rain = 0
KWA1 162101Z 15012KT 37/18 A2997 RMK A01 T03660182  RH  034%=      5-min Rain = 0
KWA1 162102Z 15009KT 37/18 A2997 RMK A01 T03650184  RH  034%=      5-min Rain = 0
KWA1 162103Z 15008KT 37/18 A2997 RMK A01 T03650184  RH  035%=      5-min Rain = 0
KWA1 162104Z 16007KT 37/19 A2997 RMK A01 T03660187  RH  035%=      5-min Rain = 0
KWA1 162105Z 14008KT 37/19 A2997 RMK A01 T03680186  RH  034%=      5-min Rain = 0
KWA1 162106Z 15009KT 37/18 A2997 RMK A01 T03680183  RH  034%=      5-min Rain = 0
KWA1 162107Z 15011KT 37/18 A2997 RMK A01 T03660183  RH  034%=      5-min Rain = 0
KWA1 162108Z 13008KT 37/18 A2997 RMK A01 T03660182  RH  034%=      5-min Rain = 0
KWA1 162109Z 13007KT 37/18 A2997 RMK A01 T03650182  RH  034%=      5-min Rain = 0
KWA1 162110Z 13008KT 37/18 A2997 RMK A01 T03650181  RH  034%=      5-min Rain = 0
KWA1 162111Z 12010KT 37/18 A2997 RMK A01 T03650183  RH  034%=      5-min Rain = 0
KWA1 162112Z 13012KT 36/19 A2997 RMK A01 T03630190  RH  036%=      5-min Rain = 0
KWA1 162113Z 13010KT 37/19 A2997 RMK A01 T03650191  RH  036%=      5-min Rain = 0
KWA1 162114Z 14012KT 37/19 A2997 RMK A01 T03660191  RH  036%=      5-min Rain = 0
KWA1 162115Z 16013KT 37/19 A2997 RMK A01 T03690189  RH  035%=      5-min Rain = 0
KWA1 162116Z 16012KT 37/18 A2997 RMK A01 T03720180  RH  033%=      5-min Rain = 0
KWA1 162117Z 15010KT 37/18 A2997 RMK A01 T03710175  RH  032%=      5-min Rain = 0
KWA1 162118Z 15012KT 37/18 A2997 RMK A01 T03690179  RH  033%=      5-min Rain = 0
KWA1 162119Z 16011KT 37/18 A2997 RMK A01 T03680181  RH  033%=      5-min Rain = 0
KWA1 162120Z 17011KT 37/18 A2997 RMK A01 T03690184  RH  034%=      5-min Rain = 0
KWA1 162121Z 16009KT 37/18 A2997 RMK A01 T03690181  RH  033%=      5-min Rain = 0
KWA1 162122Z 17011KT 37/18 A2997 RMK A01 T03680180  RH  033%=      5-min Rain = 0
KWA1 162123Z 15009KT 37/18 A2997 RMK A01 T03680181  RH  033%=      5-min Rain = 0
KWA1 162124Z 17008KT 37/18 A2997 RMK A01 T03700184  RH  034%=      5-min Rain = 0
KWA1 162125Z 14009KT 37/19 A2997 RMK A01 T03730189  RH  034%=      5-min Rain = 0
KWA1 162126Z 12010KT 37/19 A2997 RMK A01 T03740186  RH  033%=      5-min Rain = 0
KWA1 162127Z 13010KT 38/19 A2997 RMK A01 T03750186  RH  033%=      5-min Rain = 0
KWA1 162128Z 14011KT 38/18 A2997 RMK A01 T03750184  RH  033%=      5-min Rain = 0
KWA1 162129Z 13011KT 37/19 A2997 RMK A01 T03720185  RH  034%=      5-min Rain = 0
KWA1 162130Z 12013KT 37/19 A2997 RMK A01 T03730187  RH  034%=      5-min Rain = 0
KWA1 162131Z 11012KT 37/19 A2997 RMK A01 T03730186  RH  034%=      5-min Rain = 0
KWA1 162132Z 12012KT 37/19 A2996 RMK A01 T03710187  RH  034%=      5-min Rain = 0
KWA1 162133Z 12010KT 37/19 A2996 RMK A01 T03710188  RH  035%=      5-min Rain = 0
KWA1 162134Z 11010KT 37/19 A2996 RMK A01 T03710190  RH  035%=      5-min Rain = 0
KWA1 162135Z 12010KT 37/19 A2996 RMK A01 T03730190  RH  034%=      5-min Rain = 0
KWA1 162136Z 13011KT 37/19 A2996 RMK A01 T03740186  RH  033%=      5-min Rain = 0
KWA1 162137Z 13012KT 37/19 A2996 RMK A01 T03740186  RH  034%=      5-min Rain = 0
KWA1 162138Z 13013KT 37/19 A2996 RMK A01 T03710188  RH  034%=      5-min Rain = 0
KWA1 162139Z 14009KT 37/19 A2996 RMK A01 T03700190  RH  035%=      5-min Rain = 0
KWA1 162140Z 18009KT 37/18 A2996 RMK A01 T03700180  RH  033%=      5-min Rain = 0
KWA1 162141Z 16009KT 37/18 A2996 RMK A01 T03710183  RH  033%=      5-min Rain = 0
KWA1 162142Z 14008KT 37/18 A2996 RMK A01 T03730176  RH  032%=      5-min Rain = 0
KWA1 162143Z 15012KT 37/19 A2996 RMK A01 T03720187  RH  034%=      5-min Rain = 0
KWA1 162144Z 14016KT 37/19 A2996 RMK A01 T03730190  RH  034%=      5-min Rain = 0
KWA1 162145Z 16015KT 37/19 A2996 RMK A01 T03710188  RH  034%=      5-min Rain = 0
KWA1 162146Z 16010KT 37/19 A2996 RMK A01 T03710189  RH  035%=      5-min Rain = 0
KWA1 162147Z 14011KT 37/19 A2996 RMK A01 T03700189  RH  035%=      5-min Rain = 0
KWA1 162148Z 15009KT 37/19 A2996 RMK A01 T03650186  RH  035%=      5-min Rain = 0
KWA1 162149Z 15010KT 36/19 A2996 RMK A01 T03620187  RH  036%=      5-min Rain = 0
KWA1 162150Z 13011KT 36/19 A2996 RMK A01 T03610186  RH  036%=      5-min Rain = 0
KWA1 162151Z 12011KT 36/19 A2996 RMK A01 T03590186  RH  036%=      5-min Rain = 0
KWA1 162152Z 14012KT 36/19 A2996 RMK A01 T03580185  RH  036%=      5-min Rain = 0
KWA1 162153Z 15008KT 36/18 A2996 RMK A01 T03580182  RH  036%=      5-min Rain = 0
KWA1 162154Z 13009KT 36/18 A2996 RMK A01 T03560183  RH  036%=      5-min Rain = 0
KWA1 162155Z 13009KT 35/18 A2996 RMK A01 T03540184  RH  037%=      5-min Rain = 0
KWA1 162156Z 11007KT 35/18 A2996 RMK A01 T03540184  RH  037%=      5-min Rain = 0
KWA1 162157Z 15012KT 36/19 A2996 RMK A01 T03570188  RH  037%=      5-min Rain = 0
KWA1 162158Z 15014KT 36/19 A2996 RMK A01 T03630185  RH  035%=      5-min Rain = 0
KWA1 162159Z 16014KT 37/18 A2996 RMK A01 T03650184  RH  034%=      5-min Rain = 0
KWA1 162200Z 17014KT 37/18 A2996 RMK A01 T03670183  RH  034%=      5-min Rain = 0
KWA1 162201Z 18013KT 37/18 A2995 RMK A01 T03680183  RH  034%=      5-min Rain = 0
KWA1 162202Z 18010KT 37/18 A2995 RMK A01 T03670181  RH  034%=      5-min Rain = 0
KWA1 162203Z 18009KT 36/18 A2995 RMK A01 T03630178  RH  034%=      5-min Rain = 0
KWA1 162204Z 14011KT 36/18 A2995 RMK A01 T03620181  RH  034%=      5-min Rain = 0
KWA1 162205Z 13010KT 36/18 A2995 RMK A01 T03610180  RH  034%=      5-min Rain = 0
KWA1 162206Z 14009KT 36/18 A2995 RMK A01 T03600181  RH  035%=      5-min Rain = 0
KWA1 162207Z 15009KT 36/18 A2995 RMK A01 T03610183  RH  035%=      5-min Rain = 0
KWA1 162208Z 14008KT 36/18 A2995 RMK A01 T03590182  RH  035%=      5-min Rain = 0
KWA1 162209Z 16010KT 36/18 A2995 RMK A01 T03590183  RH  036%=      5-min Rain = 0
KWA1 162210Z 13009G18KT 36/18 A2995 RMK A01 T03580182  RH  035%=      5-min Rain = 0
KWA1 162211Z 14014KT 36/18 A2995 RMK A01 T03600183  RH  035%=      5-min Rain = 0
KWA1 162212Z 15009KT 36/18 A2995 RMK A01 T03610184  RH  035%=      5-min Rain = 0
KWA1 162213Z 15009KT 36/18 A2995 RMK A01 T03610184  RH  035%=      5-min Rain = 0
KWA1 162214Z 14007KT 36/19 A2995 RMK A01 T03620187  RH  036%=      5-min Rain = 0
KWA1 162215Z 13009KT 36/19 A2995 RMK A01 T03630186  RH  035%=      5-min Rain = 0
KWA1 162216Z 15011KT 37/19 A2995 RMK A01 T03650187  RH  035%=      5-min Rain = 0
KWA1 162217Z 14014KT 37/19 A2995 RMK A01 T03650186  RH  035%=      5-min Rain = 0
KWA1 162218Z 14014KT 37/19 A2995 RMK A01 T03660187  RH  035%=      5-min Rain = 0
KWA1 162219Z 16012KT 37/18 A2995 RMK A01 T03690178  RH  033%=      5-min Rain = 0
KWA1 162220Z 16012KT 37/18 A2995 RMK A01 T03700177  RH  032%=      5-min Rain = 0
KWA1 162221Z 16013KT 37/17 A2995 RMK A01 T03700173  RH  031%=      5-min Rain = 0
KWA1 162222Z 17012KT 37/18 A2995 RMK A01 T03690176  RH  032%=      5-min Rain = 0
KWA1 162223Z 16010KT 37/18 A2995 RMK A01 T03690175  RH  032%=      5-min Rain = 0
KWA1 162224Z 16012KT 37/18 A2994 RMK A01 T03700179  RH  033%=      5-min Rain = 0
KWA1 162225Z 17012KT 37/18 A2995 RMK A01 T03720176  RH  032%=      5-min Rain = 0
KWA1 162226Z 18010KT 37/18 A2994 RMK A01 T03710175  RH  032%=      5-min Rain = 0
KWA1 162227Z 16008KT 37/18 A2994 RMK A01 T03720178  RH  032%=      5-min Rain = 0
KWA1 162228Z 16012KT 37/18 A2994 RMK A01 T03730184  RH  033%=      5-min Rain = 0
KWA1 162229Z 15011KT 37/18 A2994 RMK A01 T03710182  RH  033%=      5-min Rain = 0
KWA1 162230Z 14010KT 37/18 A2994 RMK A01 T03670182  RH  034%=      5-min Rain = 0
KWA1 162231Z 14013G18KT 37/18 A2994 RMK A01 T03650183  RH  034%=      5-min Rain = 0
KWA1 162232Z 14012KT 37/18 A2994 RMK A01 T03650184  RH  035%=      5-min Rain = 0
KWA1 162233Z 14012KT 37/19 A2994 RMK A01 T03660186  RH  035%=      5-min Rain = 0
KWA1 162234Z 14016KT 37/18 A2994 RMK A01 T03670184  RH  034%=      5-min Rain = 0
KWA1 162235Z 12016KT 37/18 A2994 RMK A01 T03660184  RH  035%=      5-min Rain = 0
KWA1 162236Z 13013KT 37/18 A2994 RMK A01 T03650184  RH  034%=      5-min Rain = 0
KWA1 162237Z 14014KT 37/19 A2994 RMK A01 T03660186  RH  035%=      5-min Rain = 0
KWA1 162238Z 13013KT 37/19 A2994 RMK A01 T03650188  RH  035%=      5-min Rain = 0
KWA1 162239Z 12015KT 37/19 A2994 RMK A01 T03660185  RH  035%=      5-min Rain = 0
KWA1 162240Z 12016KT 37/18 A2994 RMK A01 T03670183  RH  034%=      5-min Rain = 0
KWA1 162241Z 12013KT 37/18 A2994 RMK A01 T03660184  RH  034%=      5-min Rain = 0
KWA1 162242Z 12013KT 37/18 A2994 RMK A01 T03660184  RH  034%=      5-min Rain = 0
KWA1 162243Z 12013KT 36/18 A2994 RMK A01 T03640184  RH  035%=      5-min Rain = 0
KWA1 162244Z 12013KT 36/18 A2994 RMK A01 T03630184  RH  035%=      5-min Rain = 0
KWA1 162245Z 12012KT 36/18 A2994 RMK A01 T03600180  RH  035%=      5-min Rain = 0
KWA1 162246Z 12012KT 36/18 A2994 RMK A01 T03590181  RH  035%=      5-min Rain = 0
KWA1 162247Z 13010KT 36/18 A2994 RMK A01 T03590180  RH  035%=      5-min Rain = 0
KWA1 162248Z 14011KT 36/18 A2994 RMK A01 T03590184  RH  036%=      5-min Rain = 0
KWA1 162249Z 15010G15KT 36/19 A2994 RMK A01 T03610186  RH  036%=      5-min Rain = 0
KWA1 162250Z 13014KT 36/19 A2994 RMK A01 T03640187  RH  035%=      5-min Rain = 0
KWA1 162251Z 13016KT 37/19 A2994 RMK A01 T03670185  RH  035%=      5-min Rain = 0
KWA1 162252Z 14015KT 37/18 A2994 RMK A01 T03660184  RH  034%=      5-min Rain = 0
KWA1 162253Z 13016KT 37/18 A2994 RMK A01 T03650182  RH  034%=      5-min Rain = 0
KWA1 162254Z 13017KT 36/18 A2994 RMK A01 T03640181  RH  034%=      5-min Rain = 0
KWA1 162255Z 14015KT 36/18 A2994 RMK A01 T03630179  RH  034%=      5-min Rain = 0
KWA1 162256Z 14012KT 36/18 A2994 RMK A01 T03620180  RH  034%=      5-min Rain = 0
KWA1 162257Z 13010KT 36/18 A2994 RMK A01 T03620181  RH  035%=      5-min Rain = 0
KWA1 162258Z 15012KT 36/18 A2994 RMK A01 T03630180  RH  034%=      5-min Rain = 0
KWA1 162259Z 13010KT 36/18 A2993 RMK A01 T03630181  RH  034%=      5-min Rain = 0
KWA1 162300Z 14014KT 36/18 A2993 RMK A01 T03640182  RH  034%=      5-min Rain = 0
KWA1 162301Z 14014KT 37/18 A2993 RMK A01 T03650181  RH  034%=      5-min Rain = 0
KWA1 162302Z 14015KT 37/18 A2993 RMK A01 T03650180  RH  034%=      5-min Rain = 0
KWA1 162303Z 14014KT 36/18 A2993 RMK A01 T03640180  RH  034%=      5-min Rain = 0
KWA1 162304Z 14014KT 36/18 A2993 RMK A01 T03640178  RH  034%=      5-min Rain = 0
KWA1 162305Z 14013KT 36/18 A2993 RMK A01 T03630177  RH  034%=      5-min Rain = 0
KWA1 162306Z 13011KT 36/18 A2993 RMK A01 T03620178  RH  034%=      5-min Rain = 0
KWA1 162307Z 14012KT 36/18 A2993 RMK A01 T03620177  RH  034%=      5-min Rain = 0
KWA1 162308Z 13012KT 36/18 A2993 RMK A01 T03630179  RH  034%=      5-min Rain = 0
KWA1 162309Z 14009KT 36/18 A2993 RMK A01 T03630178  RH  034%=      5-min Rain = 0
KWA1 162310Z 13010KT 36/18 A2993 RMK A01 T03620177  RH  034%=      5-min Rain = 0
KWA1 162311Z 13012KT 36/18 A2993 RMK A01 T03620180  RH  034%=      5-min Rain = 0
KWA1 162312Z 13009KT 37/18 A2993 RMK A01 T03650183  RH  034%=      5-min Rain = 0
KWA1 162313Z 12010KT 37/18 A2993 RMK A01 T03660184  RH  034%=      5-min Rain = 0
KWA1 162314Z 13010KT 37/18 A2993 RMK A01 T03660180  RH  033%=      5-min Rain = 0
KWA1 162315Z 14009KT 37/18 A2993 RMK A01 T03650182  RH  034%=      5-min Rain = 0
KWA1 162316Z 16012KT 37/18 A2993 RMK A01 T03650183  RH  034%=      5-min Rain = 0
KWA1 162317Z 14012KT 37/18 A2993 RMK A01 T03650182  RH  034%=      5-min Rain = 0
KWA1 162318Z 15013KT 37/18 A2993 RMK A01 T03650182  RH  034%=      5-min Rain = 0
KWA1 162319Z 16010KT 36/18 A2993 RMK A01 T03630181  RH  034%=      5-min Rain = 0
KWA1 162320Z 16012KT 37/18 A2993 RMK A01 T03650183  RH  034%=      5-min Rain = 0
KWA1 162321Z 15012KT 37/18 A2993 RMK A01 T03660181  RH  034%=      5-min Rain = 0
KWA1 162322Z 15010KT 37/18 A2993 RMK A01 T03650179  RH  034%=      5-min Rain = 0
KWA1 162323Z 15010KT 36/18 A2993 RMK A01 T03640181  RH  034%=      5-min Rain = 0
KWA1 162324Z 13010KT 36/18 A2993 RMK A01 T03640181  RH  034%=      5-min Rain = 0
KWA1 162325Z 12011KT 36/18 A2993 RMK A01 T03640178  RH  034%=      5-min Rain = 0
KWA1 162326Z 12012KT 36/18 A2993 RMK A01 T03640178  RH  034%=      5-min Rain = 0
KWA1 162327Z 13014KT 36/18 A2993 RMK A01 T03640177  RH  033%=      5-min Rain = 0
KWA1 162328Z 13013KT 36/18 A2993 RMK A01 T03620177  RH  034%=      5-min Rain = 0
KWA1 162329Z 14013KT 36/18 A2993 RMK A01 T03610178  RH  034%=      5-min Rain = 0
KWA1 162330Z 14009KT 36/18 A2993 RMK A01 T03610180  RH  034%=      5-min Rain = 0
KWA1 162331Z 16013KT 36/18 A2993 RMK A01 T03620180  RH  034%=      5-min Rain = 0
KWA1 162332Z 15013KT 36/18 A2993 RMK A01 T03630179  RH  034%=      5-min Rain = 0
KWA1 162333Z 15015KT 36/18 A2993 RMK A01 T03630180  RH  034%=      5-min Rain = 0
KWA1 162334Z 14015KT 36/18 A2993 RMK A01 T03620178  RH  034%=      5-min Rain = 0
KWA1 162335Z 13013KT 36/18 A2993 RMK A01 T03610178  RH  034%=      5-min Rain = 0
KWA1 162336Z 13012KT 36/18 A2993 RMK A01 T03610178  RH  034%=      5-min Rain = 0
KWA1 162337Z 13013KT 36/18 A2993 RMK A01 T03610178  RH  034%=      5-min Rain = 0
KWA1 162338Z 12012KT 36/18 A2993 RMK A01 T03610178  RH  034%=      5-min Rain = 0
KWA1 162339Z 12012KT 36/18 A2993 RMK A01 T03630179  RH  034%=      5-min Rain = 0
KWA1 162340Z 12013KT 36/18 A2993 RMK A01 T03640178  RH  034%=      5-min Rain = 0
KWA1 162341Z 13011KT 36/18 A2993 RMK A01 T03630178  RH  034%=      5-min Rain = 0
KWA1 162342Z 13011KT 36/18 A2993 RMK A01 T03620178  RH  034%=      5-min Rain = 0
KWA1 162343Z 13010KT 36/18 A2993 RMK A01 T03610179  RH  034%=      5-min Rain = 0
KWA1 162344Z 15011KT 36/18 A2993 RMK A01 T03610180  RH  034%=      5-min Rain = 0
KWA1 162345Z 15010KT 36/18 A2993 RMK A01 T03620176  RH  033%=      5-min Rain = 0
KWA1 162346Z 16011KT 36/18 A2993 RMK A01 T03610176  RH  034%=      5-min Rain = 0
KWA1 162347Z 16012KT 36/18 A2993 RMK A01 T03610175  RH  034%=      5-min Rain = 0
KWA1 162348Z 17010KT 36/18 A2993 RMK A01 T03620177  RH  034%=      5-min Rain = 0
KWA1 162349Z 17011KT 36/18 A2993 RMK A01 T03620177  RH  034%=      5-min Rain = 0
KWA1 162350Z 17011KT 36/18 A2993 RMK A01 T03620177  RH  034%=      5-min Rain = 0
KWA1 162351Z 17011KT 36/18 A2993 RMK A01 T03630177  RH  034%=      5-min Rain = 0
KWA1 162352Z 15013KT 36/18 A2993 RMK A01 T03620176  RH  033%=      5-min Rain = 0
KWA1 162353Z 16014KT 36/17 A2993 RMK A01 T03610174  RH  033%=      5-min Rain = 0
KWA1 162354Z 15013KT 36/18 A2993 RMK A01 T03610176  RH  034%=      5-min Rain = 0
KWA1 162355Z 16012KT 36/17 A2993 RMK A01 T03610174  RH  033%=      5-min Rain = 0
KWA1 162356Z 15012KT 36/17 A2993 RMK A01 T03610174  RH  033%=      5-min Rain = 0
KWA1 162357Z 14011KT 36/18 A2993 RMK A01 T03610177  RH  034%=      5-min Rain = 0
KWA1 162358Z 14009KT 36/18 A2993 RMK A01 T03600179  RH  034%=      5-min Rain = 0
KWA1 162359Z 14007KT 36/18 A2993 RMK A01 T03590179  RH  035%=      5-min Rain = 0
KWA1 170000Z 15009KT 36/18 A2993 RMK A01 T03590179  RH  035%=      5-min Rain = 0
KWA1 170001Z 14008KT 36/18 A2993 RMK A01 T03600177  RH  034%=      5-min Rain = 0
KWA1 170002Z 14008KT 36/18 A2993 RMK A01 T03600176  RH  034%=      5-min Rain = 0
KWA1 170003Z 16009KT 36/18 A2993 RMK A01 T03600178  RH  034%=      5-min Rain = 0
KWA1 170004Z 15010KT 36/18 A2993 RMK A01 T03600178  RH  034%=      5-min Rain = 0
KWA1 170005Z 15011KT 36/18 A2993 RMK A01 T03600179  RH  034%=      5-min Rain = 0
KWA1 170006Z 14011KT 36/18 A2993 RMK A01 T03600178  RH  034%=      5-min Rain = 0
KWA1 170007Z 15012KT 36/18 A2993 RMK A01 T03590178  RH  035%=      5-min Rain = 0
KWA1 170008Z 15011KT 36/18 A2993 RMK A01 T03590178  RH  035%=      5-min Rain = 0
KWA1 170009Z 14010KT 36/18 A2993 RMK A01 T03580177  RH  034%=      5-min Rain = 0
KWA1 170010Z 13009KT 36/18 A2993 RMK A01 T03570179  RH  035%=      5-min Rain = 0
KWA1 170011Z 14010KT 36/18 A2993 RMK A01 T03570180  RH  035%=      5-min Rain = 0
KWA1 170012Z 15011KT 36/18 A2993 RMK A01 T03590179  RH  035%=      5-min Rain = 0
KWA1 170013Z 15012KT 36/18 A2993 RMK A01 T03590175  RH  034%=      5-min Rain = 0
KWA1 170014Z 14012KT 36/18 A2993 RMK A01 T03590175  RH  034%=      5-min Rain = 0
KWA1 170015Z 14013KT 36/17 A2993 RMK A01 T03580174  RH  034%=      5-min Rain = 0
KWA1 170016Z 15010KT 36/18 A2993 RMK A01 T03570176  RH  034%=      5-min Rain = 0
KWA1 170017Z 15012KT 36/18 A2993 RMK A01 T03570177  RH  035%=      5-min Rain = 0
KWA1 170018Z 15009KT 36/18 A2993 RMK A01 T03570178  RH  035%=      5-min Rain = 0
KWA1 170019Z 15008KT 36/18 A2993 RMK A01 T03570179  RH  035%=      5-min Rain = 0
KWA1 170020Z 15010KT 36/18 A2993 RMK A01 T03570178  RH  035%=      5-min Rain = 0
KWA1 170021Z 15009KT 36/18 A2993 RMK A01 T03570178  RH  035%=      5-min Rain = 0
KWA1 170022Z 14007KT 36/18 A2993 RMK A01 T03570179  RH  035%=      5-min Rain = 0
KWA1 170023Z 14009KT 36/18 A2993 RMK A01 T03570181  RH  035%=      5-min Rain = 0
KWA1 170024Z 13012KT 36/18 A2993 RMK A01 T03570181  RH  035%=      5-min Rain = 0
KWA1 170025Z 13013KT 36/18 A2993 RMK A01 T03570178  RH  035%=      5-min Rain = 0
KWA1 170026Z 12011KT 36/18 A2993 RMK A01 T03560178  RH  035%=      5-min Rain = 0
KWA1 170027Z 12011KT 36/18 A2993 RMK A01 T03560179  RH  035%=      5-min Rain = 0
KWA1 170028Z 14012KT 36/18 A2993 RMK A01 T03560180  RH  035%=      5-min Rain = 0
KWA1 170029Z 14012KT 36/18 A2993 RMK A01 T03550180  RH  035%=      5-min Rain = 0
KWA1 170030Z 14010KT 36/18 A2993 RMK A01 T03550180  RH  036%=      5-min Rain = 0
KWA1 170031Z 14008KT 35/18 A2993 RMK A01 T03540180  RH  036%=      5-min Rain = 0
KWA1 170032Z 14009KT 35/18 A2993 RMK A01 T03540181  RH  036%=      5-min Rain = 0
KWA1 170033Z 15014KT 35/18 A2993 RMK A01 T03530180  RH  036%=      5-min Rain = 0
KWA1 170034Z 14014KT 35/18 A2993 RMK A01 T03530178  RH  035%=      5-min Rain = 0
KWA1 170035Z 15014KT 35/18 A2994 RMK A01 T03530178  RH  036%=      5-min Rain = 0
KWA1 170036Z 15014KT 35/18 A2994 RMK A01 T03530178  RH  036%=      5-min Rain = 0
KWA1 170037Z 15013KT 35/18 A2994 RMK A01 T03530179  RH  036%=      5-min Rain = 0
KWA1 170038Z 15013KT 35/18 A2994 RMK A01 T03520179  RH  036%=      5-min Rain = 0
KWA1 170039Z 14012KT 35/18 A2994 RMK A01 T03520179  RH  036%=      5-min Rain = 0
KWA1 170040Z 14011KT 35/18 A2994 RMK A01 T03520179  RH  036%=      5-min Rain = 0
KWA1 170041Z 14010KT 35/18 A2994 RMK A01 T03510179  RH  036%=      5-min Rain = 0
KWA1 170042Z 13011KT 35/18 A2994 RMK A01 T03520180  RH  036%=      5-min Rain = 0
KWA1 170043Z 15011KT 35/18 A2994 RMK A01 T03520180  RH  036%=      5-min Rain = 0
KWA1 170044Z 15012KT 35/18 A2994 RMK A01 T03520179  RH  036%=      5-min Rain = 0
KWA1 170045Z 15013KT 35/18 A2994 RMK A01 T03510180  RH  037%=      5-min Rain = 0
KWA1 170046Z 14013KT 35/18 A2994 RMK A01 T03500181  RH  037%=      5-min Rain = 0
KWA1 170047Z 14013KT 35/18 A2994 RMK A01 T03500182  RH  037%=      5-min Rain = 0
KWA1 170048Z 14013KT 35/18 A2994 RMK A01 T03490182  RH  037%=      5-min Rain = 0
KWA1 170049Z 14010KT 35/18 A2994 RMK A01 T03490183  RH  037%=      5-min Rain = 0
KWA1 170050Z 15011KT 35/18 A2994 RMK A01 T03490184  RH  038%=      5-min Rain = 0
KWA1 170051Z 14013KT 35/18 A2994 RMK A01 T03490183  RH  038%=      5-min Rain = 0
KWA1 170052Z 13012KT 35/18 A2994 RMK A01 T03490183  RH  038%=      5-min Rain = 0
KWA1 170053Z 13013KT 35/18 A2994 RMK A01 T03480183  RH  038%=      5-min Rain = 0
KWA1 170054Z 14012KT 35/18 A2994 RMK A01 T03480183  RH  038%=      5-min Rain = 0
KWA1 170055Z 15012KT 35/18 A2994 RMK A01 T03480183  RH  038%=      5-min Rain = 0
KWA1 170056Z 14011KT 35/18 A2994 RMK A01 T03470184  RH  038%=      5-min Rain = 0
KWA1 170057Z 14010KT 35/19 A2994 RMK A01 T03470185  RH  038%=      5-min Rain = 0
KWA1 170058Z 14011KT 35/18 A2994 RMK A01 T03470184  RH  038%=      5-min Rain = 0
KWA1 170059Z 14010KT 35/19 A2994 RMK A01 T03460185  RH  039%=      5-min Rain = 0
KWA1 170100Z 14009KT 35/19 A2994 RMK A01 T03460185  RH  039%=      5-min Rain = 0
KWA1 170101Z 15009KT 35/19 A2994 RMK A01 T03460186  RH  039%=      5-min Rain = 0
KWA1 170102Z 14009KT 35/19 A2994 RMK A01 T03460185  RH  039%=      5-min Rain = 0
KWA1 170103Z 14008KT 35/19 A2994 RMK A01 T03450186  RH  039%=      5-min Rain = 0
KWA1 170104Z 14008KT 35/19 A2994 RMK A01 T03450186  RH  039%=      5-min Rain = 0
KWA1 170105Z 14010KT 34/19 A2994 RMK A01 T03440185  RH  039%=      5-min Rain = 0
KWA1 170106Z 14012KT 34/19 A2994 RMK A01 T03440185  RH  039%=      5-min Rain = 0
KWA1 170107Z 14010KT 34/19 A2994 RMK A01 T03440185  RH  039%=      5-min Rain = 0
KWA1 170108Z 13009KT 34/18 A2994 RMK A01 T03430184  RH  039%=      5-min Rain = 0
KWA1 170109Z 14009KT 34/18 A2994 RMK A01 T03430184  RH  039%=      5-min Rain = 0
KWA1 170110Z 13010KT 34/18 A2994 RMK A01 T03430183  RH  039%=      5-min Rain = 0
KWA1 170111Z 13012KT 34/18 A2994 RMK A01 T03430183  RH  039%=      5-min Rain = 0
KWA1 170112Z 14010KT 34/18 A2994 RMK A01 T03420183  RH  039%=      5-min Rain = 0
KWA1 170113Z 14009KT 34/18 A2994 RMK A01 T03420183  RH  039%=      5-min Rain = 0
KWA1 170114Z 13012KT 34/18 A2994 RMK A01 T03420184  RH  039%=      5-min Rain = 0
KWA1 170115Z 13010KT 34/18 A2994 RMK A01 T03410183  RH  039%=      5-min Rain = 0
KWA1 170116Z 14010KT 34/18 A2994 RMK A01 T03410184  RH  039%=      5-min Rain = 0
KWA1 170117Z 14010KT 34/18 A2994 RMK A01 T03400183  RH  039%=      5-min Rain = 0
KWA1 170118Z 14009KT 34/18 A2994 RMK A01 T03400183  RH  039%=      5-min Rain = 0
KWA1 170119Z 14012KT 34/18 A2994 RMK A01 T03400183  RH  040%=      5-min Rain = 0
KWA1 170120Z 14011KT 34/18 A2994 RMK A01 T03390182  RH  039%=      5-min Rain = 0
KWA1 170121Z 14010KT 34/18 A2994 RMK A01 T03390182  RH  040%=      5-min Rain = 0
KWA1 170122Z 14011KT 34/18 A2994 RMK A01 T03390182  RH  040%=      5-min Rain = 0
KWA1 170123Z 14010KT 34/18 A2994 RMK A01 T03380182  RH  040%=      5-min Rain = 0
KWA1 170124Z 14009KT 34/18 A2994 RMK A01 T03370182  RH  040%=      5-min Rain = 0
KWA1 170125Z 14009KT 34/18 A2994 RMK A01 T03370182  RH  040%=      5-min Rain = 0
KWA1 170126Z 13011KT 34/18 A2994 RMK A01 T03370182  RH  040%=      5-min Rain = 0
KWA1 170127Z 13011KT 34/18 A2994 RMK A01 T03360182  RH  040%=      5-min Rain = 0
KWA1 170128Z 13010KT 34/18 A2994 RMK A01 T03360182  RH  040%=      5-min Rain = 0
KWA1 170129Z 13012KT 34/18 A2994 RMK A01 T03360182  RH  040%=      5-min Rain = 0
KWA1 170130Z 14010KT 34/18 A2994 RMK A01 T03350181  RH  040%=      5-min Rain = 0
KWA1 170131Z 13008KT 34/18 A2994 RMK A01 T03350181  RH  040%=      5-min Rain = 0
KWA1 170132Z 13010KT 33/18 A2994 RMK A01 T03340181  RH  040%=      5-min Rain = 0
KWA1 170133Z 13008KT 33/18 A2994 RMK A01 T03340181  RH  040%=      5-min Rain = 0
KWA1 170134Z 13011KT 33/18 A2994 RMK A01 T03340181  RH  040%=      5-min Rain = 0
KWA1 170135Z 13011KT 33/18 A2994 RMK A01 T03330180  RH  040%=      5-min Rain = 0
KWA1 170136Z 14010KT 33/18 A2994 RMK A01 T03330180  RH  040%=      5-min Rain = 0
KWA1 170137Z 13010KT 33/18 A2994 RMK A01 T03330180  RH  040%=      5-min Rain = 0
KWA1 170138Z 13011KT 33/18 A2994 RMK A01 T03320179  RH  040%=      5-min Rain = 0
KWA1 170139Z 13011KT 33/18 A2994 RMK A01 T03320179  RH  040%=      5-min Rain = 0
KWA1 170140Z 13011KT 33/18 A2994 RMK A01 T03320179  RH  040%=      5-min Rain = 0
KWA1 170141Z 14010KT 33/18 A2995 RMK A01 T03310179  RH  040%=      5-min Rain = 0
KWA1 170142Z 13010KT 33/18 A2995 RMK A01 T03310179  RH  040%=      5-min Rain = 0
KWA1 170143Z 13011KT 33/18 A2995 RMK A01 T03300179  RH  041%=      5-min Rain = 0
KWA1 170144Z 13010KT 33/18 A2995 RMK A01 T03300179  RH  041%=      5-min Rain = 0
KWA1 170145Z 13010KT 33/18 A2995 RMK A01 T03300179  RH  041%=      5-min Rain = 0
KWA1 170146Z 13010KT 33/18 A2995 RMK A01 T03290179  RH  041%=      5-min Rain = 0
KWA1 170147Z 13011KT 33/18 A2995 RMK A01 T03290179  RH  041%=      5-min Rain = 0
KWA1 170148Z 14010KT 33/18 A2995 RMK A01 T03290179  RH  041%=      5-min Rain = 0
KWA1 170149Z 13009KT 33/18 A2995 RMK A01 T03290179  RH  041%=      5-min Rain = 0
KWA1 170150Z 13009KT 33/18 A2995 RMK A01 T03280178  RH  041%=      5-min Rain = 0
KWA1 170151Z 13009KT 33/18 A2995 RMK A01 T03270179  RH  041%=      5-min Rain = 0
KWA1 170152Z 13009KT 33/18 A2995 RMK A01 T03260178  RH  041%=      5-min Rain = 0
KWA1 170153Z 14009KT 33/18 A2995 RMK A01 T03260178  RH  042%=      5-min Rain = 0
KWA1 170154Z 14009KT 33/18 A2995 RMK A01 T03260179  RH  042%=      5-min Rain = 0
KWA1 170155Z 14009KT 33/18 A2995 RMK A01 T03260179  RH  042%=      5-min Rain = 0
KWA1 170156Z 14009KT 33/18 A2995 RMK A01 T03260179  RH  042%=      5-min Rain = 0
KWA1 170157Z 13009KT 33/18 A2995 RMK A01 T03250179  RH  042%=      5-min Rain = 0
KWA1 170158Z 14009KT 33/18 A2995 RMK A01 T03250178  RH  042%=      5-min Rain = 0
KWA1 170159Z 14010KT 32/18 A2995 RMK A01 T03240178  RH  042%=      5-min Rain = 0
KWA1 170200Z 13009KT 32/18 A2995 RMK A01 T03240178  RH  042%=      5-min Rain = 0
KWA1 170201Z 14008KT 32/18 A2995 RMK A01 T03240178  RH  042%=      5-min Rain = 0
KWA1 170202Z 14009KT 32/18 A2995 RMK A01 T03230178  RH  042%=      5-min Rain = 0
KWA1 170203Z 14009KT 32/18 A2995 RMK A01 T03230179  RH  042%=      5-min Rain = 0
KWA1 170204Z 14008KT 32/18 A2995 RMK A01 T03230179  RH  042%=      5-min Rain = 0
KWA1 170205Z 13010KT 32/18 A2995 RMK A01 T03220179  RH  042%=      5-min Rain = 0
KWA1 170206Z 14009KT 32/18 A2995 RMK A01 T03220179  RH  042%=      5-min Rain = 0
KWA1 170207Z 14008KT 32/18 A2995 RMK A01 T03220179  RH  043%=      5-min Rain = 0
KWA1 170208Z 14009KT 32/18 A2995 RMK A01 T03220179  RH  043%=      5-min Rain = 0
KWA1 170209Z 14008KT 32/18 A2995 RMK A01 T03210179  RH  043%=      5-min Rain = 0
KWA1 170210Z 14009KT 32/18 A2995 RMK A01 T03210179  RH  043%=      5-min Rain = 0
KWA1 170211Z 14008KT 32/18 A2995 RMK A01 T03210179  RH  043%=      5-min Rain = 0
KWA1 170212Z 14009KT 32/18 A2995 RMK A01 T03200179  RH  043%=      5-min Rain = 0
KWA1 170213Z 14009KT 32/18 A2995 RMK A01 T03200179  RH  043%=      5-min Rain = 0
KWA1 170214Z 14009KT 32/18 A2995 RMK A01 T03200180  RH  043%=      5-min Rain = 0
KWA1 170215Z 14009KT 32/18 A2995 RMK A01 T03200179  RH  043%=      5-min Rain = 0
KWA1 170216Z 14009KT 32/18 A2995 RMK A01 T03190179  RH  043%=      5-min Rain = 0
KWA1 170217Z 14010KT 32/18 A2996 RMK A01 T03190180  RH  044%=      5-min Rain = 0
KWA1 170218Z 14008KT 32/18 A2996 RMK A01 T03190180  RH  044%=      5-min Rain = 0
KWA1 170219Z 14008KT 32/18 A2996 RMK A01 T03180180  RH  044%=      5-min Rain = 0
KWA1 170220Z 14009KT 32/18 A2996 RMK A01 T03180180  RH  044%=      5-min Rain = 0
KWA1 170221Z 14008KT 32/18 A2996 RMK A01 T03170180  RH  044%=      5-min Rain = 0
KWA1 170222Z 14008KT 32/18 A2996 RMK A01 T03170180  RH  044%=      5-min Rain = 0
KWA1 170223Z 14009KT 32/18 A2996 RMK A01 T03160180  RH  044%=      5-min Rain = 0
KWA1 170224Z 14009KT 32/18 A2996 RMK A01 T03160180  RH  044%=      5-min Rain = 0
KWA1 170225Z 14009KT 32/18 A2996 RMK A01 T03160180  RH  044%=      5-min Rain = 0
KWA1 170226Z 14010KT 32/18 A2996 RMK A01 T03160180  RH  044%=      5-min Rain = 0
KWA1 170227Z 14008KT 32/18 A2996 RMK A01 T03160180  RH  044%=      5-min Rain = 0
KWA1 170228Z 14009KT 32/18 A2996 RMK A01 T03160180  RH  044%=      5-min Rain = 0
KWA1 170229Z 14008KT 32/18 A2996 RMK A01 T03160181  RH  044%=      5-min Rain = 0
KWA1 170230Z 14008KT 32/18 A2996 RMK A01 T03150180  RH  045%=      5-min Rain = 0
KWA1 170231Z 14009KT 32/18 A2996 RMK A01 T03150181  RH  045%=      5-min Rain = 0
KWA1 170232Z 14009KT 32/18 A2996 RMK A01 T03150181  RH  045%=      5-min Rain = 0
KWA1 170233Z 14009KT 32/18 A2996 RMK A01 T03150181  RH  045%=      5-min Rain = 0
KWA1 170234Z 14008KT 31/18 A2996 RMK A01 T03140180  RH  045%=      5-min Rain = 0
KWA1 170235Z 14009KT 31/18 A2996 RMK A01 T03140181  RH  045%=      5-min Rain = 0
KWA1 170236Z 14008KT 31/18 A2996 RMK A01 T03140181  RH  045%=      5-min Rain = 0
KWA1 170237Z 14008KT 31/18 A2996 RMK A01 T03130180  RH  045%=      5-min Rain = 0
KWA1 170238Z 14008KT 31/18 A2996 RMK A01 T03120180  RH  045%=      5-min Rain = 0
KWA1 170239Z 14008KT 31/18 A2996 RMK A01 T03120181  RH  046%=      5-min Rain = 0
KWA1 170240Z 14007KT 31/18 A2997 RMK A01 T03120181  RH  046%=      5-min Rain = 0
KWA1 170241Z 14008KT 31/18 A2997 RMK A01 T03110181  RH  046%=      5-min Rain = 0
KWA1 170242Z 14007KT 31/18 A2997 RMK A01 T03110181  RH  046%=      5-min Rain = 0
KWA1 170243Z 14007KT 31/18 A2997 RMK A01 T03100181  RH  046%=      5-min Rain = 0
KWA1 170244Z 14007KT 31/18 A2997 RMK A01 T03100181  RH  046%=      5-min Rain = 0
KWA1 170245Z 14007KT 31/18 A2997 RMK A01 T03090181  RH  046%=      5-min Rain = 0
KWA1 170246Z 14007KT 31/18 A2997 RMK A01 T03080181  RH  047%=      5-min Rain = 0
KWA1 170247Z 14006KT 31/18 A2997 RMK A01 T03070181  RH  047%=      5-min Rain = 0
KWA1 170248Z 14006KT 31/18 A2997 RMK A01 T03070181  RH  047%=      5-min Rain = 0
KWA1 170249Z 14007KT 31/18 A2997 RMK A01 T03060181  RH  047%=      5-min Rain = 0
KWA1 170250Z 14007KT 31/18 A2997 RMK A01 T03060181  RH  047%=      5-min Rain = 0
KWA1 170251Z 14007KT 31/18 A2997 RMK A01 T03060181  RH  047%=      5-min Rain = 0
KWA1 170252Z 14007KT 31/18 A2997 RMK A01 T03050181  RH  047%=      5-min Rain = 0
KWA1 170253Z 14007KT 31/18 A2997 RMK A01 T03050181  RH  047%=      5-min Rain = 0
KWA1 170254Z 14006KT 31/18 A2997 RMK A01 T03050181  RH  047%=      5-min Rain = 0
KWA1 170255Z 14005KT 30/18 A2997 RMK A01 T03040181  RH  048%=      5-min Rain = 0
KWA1 170256Z 14007KT 30/18 A2997 RMK A01 T03040181  RH  048%=      5-min Rain = 0
KWA1 170257Z 14007KT 30/18 A2997 RMK A01 T03030180  RH  048%=      5-min Rain = 0
KWA1 170258Z 14007KT 30/18 A2997 RMK A01 T03030180  RH  048%=      5-min Rain = 0
KWA1 170259Z 14007KT 30/18 A2997 RMK A01 T03030181  RH  048%=      5-min Rain = 0
KWA1 170300Z 14007KT 30/18 A2997 RMK A01 T03030181  RH  048%=      5-min Rain = 0
KWA1 170301Z 14007KT 30/18 A2997 RMK A01 T03030181  RH  048%=      5-min Rain = 0
KWA1 170302Z 14008KT 30/18 A2997 RMK A01 T03020181  RH  048%=      5-min Rain = 0
KWA1 170303Z 14008KT 30/18 A2997 RMK A01 T03020181  RH  048%=      5-min Rain = 0
KWA1 170304Z 14007KT 30/18 A2997 RMK A01 T03020181  RH  048%=      5-min Rain = 0
KWA1 170305Z 15007KT 30/18 A2997 RMK A01 T03020181  RH  048%=      5-min Rain = 0
KWA1 170306Z 14008KT 30/18 A2997 RMK A01 T03020181  RH  048%=      5-min Rain = 0
KWA1 170307Z 15008KT 30/18 A2997 RMK A01 T03020181  RH  049%=      5-min Rain = 0
KWA1 170308Z 15007KT 30/18 A2997 RMK A01 T03020181  RH  048%=      5-min Rain = 0
KWA1 170309Z 15007KT 30/18 A2997 RMK A01 T03020181  RH  049%=      5-min Rain = 0
KWA1 170310Z 15007KT 30/18 A2997 RMK A01 T03010182  RH  049%=      5-min Rain = 0
KWA1 170311Z 15007KT 30/18 A2997 RMK A01 T03010181  RH  049%=      5-min Rain = 0
KWA1 170312Z 15007KT 30/18 A2997 RMK A01 T03010181  RH  049%=      5-min Rain = 0
KWA1 170313Z 15007KT 30/18 A2997 RMK A01 T03000182  RH  049%=      5-min Rain = 0
KWA1 170314Z 15007KT 30/18 A2997 RMK A01 T03000182  RH  049%=      5-min Rain = 0
KWA1 170315Z 15006KT 30/18 A2998 RMK A01 T02990182  RH  049%=      5-min Rain = 0
KWA1 170316Z 15007KT 30/18 A2998 RMK A01 T02990182  RH  049%=      5-min Rain = 0
KWA1 170317Z 15007KT 30/18 A2998 RMK A01 T02990182  RH  050%=      5-min Rain = 0
KWA1 170318Z 15006KT 30/18 A2998 RMK A01 T02980182  RH  050%=      5-min Rain = 0
KWA1 170319Z 15006KT 30/18 A2998 RMK A01 T02980182  RH  050%=      5-min Rain = 0
KWA1 170320Z 15006KT 30/18 A2998 RMK A01 T02980182  RH  050%=      5-min Rain = 0
KWA1 170321Z 15007KT 30/18 A2998 RMK A01 T02970182  RH  050%=      5-min Rain = 0
KWA1 170322Z 15007KT 30/18 A2998 RMK A01 T02970182  RH  050%=      5-min Rain = 0
KWA1 170323Z 15007KT 30/18 A2998 RMK A01 T02970182  RH  050%=      5-min Rain = 0
KWA1 170324Z 15008KT 30/18 A2998 RMK A01 T02970183  RH  050%=      5-min Rain = 0
KWA1 170325Z 15007KT 30/18 A2998 RMK A01 T02960183  RH  050%=      5-min Rain = 0
KWA1 170326Z 14006KT 30/18 A2998 RMK A01 T02960183  RH  051%=      5-min Rain = 0
KWA1 170327Z 14007KT 30/18 A2998 RMK A01 T02960183  RH  051%=      5-min Rain = 0
KWA1 170328Z 14007KT 30/18 A2998 RMK A01 T02960183  RH  051%=      5-min Rain = 0
KWA1 170329Z 15007KT 30/18 A2998 RMK A01 T02960183  RH  051%=      5-min Rain = 0
KWA1 170330Z 15007KT 30/18 A2998 RMK A01 T02960183  RH  051%=      5-min Rain = 0
KWA1 170331Z 14008KT 30/18 A2998 RMK A01 T02950183  RH  051%=      5-min Rain = 0
KWA1 170332Z 15007KT 30/18 A2998 RMK A01 T02960183  RH  051%=      5-min Rain = 0
KWA1 170333Z 15008KT 30/18 A2998 RMK A01 T02960184  RH  051%=      5-min Rain = 0
KWA1 170334Z 15007KT 30/18 A2998 RMK A01 T02960184  RH  051%=      5-min Rain = 0
KWA1 170335Z 15007KT 30/18 A2998 RMK A01 T02950184  RH  051%=      5-min Rain = 0
KWA1 170336Z 15007KT 30/18 A2998 RMK A01 T02950184  RH  051%=      5-min Rain = 0
KWA1 170337Z 15007KT 30/18 A2998 RMK A01 T02950184  RH  051%=      5-min Rain = 0
KWA1 170338Z 15007KT 30/18 A2998 RMK A01 T02950184  RH  051%=      5-min Rain = 0
KWA1 170339Z 15007KT 30/19 A2998 RMK A01 T02950185  RH  051%=      5-min Rain = 0
KWA1 170340Z 14007KT 30/18 A2998 RMK A01 T02950184  RH  051%=      5-min Rain = 0
KWA1 170341Z 15007KT 30/18 A2998 RMK A01 T02950184  RH  051%=      5-min Rain = 0
KWA1 170342Z 14007KT 29/18 A2998 RMK A01 T02940184  RH  052%=      5-min Rain = 0
KWA1 170343Z 14007KT 30/19 A2998 RMK A01 T02950185  RH  052%=      5-min Rain = 0
KWA1 170344Z 14007KT 29/19 A2999 RMK A01 T02940185  RH  052%=      5-min Rain = 0
KWA1 170345Z 15006KT 29/18 A2999 RMK A01 T02940184  RH  052%=      5-min Rain = 0
KWA1 170346Z 15007KT 29/18 A2999 RMK A01 T02930184  RH  052%=      5-min Rain = 0
KWA1 170347Z 15007KT 29/18 A2999 RMK A01 T02930184  RH  052%=      5-min Rain = 0
KWA1 170348Z 14007KT 29/19 A2999 RMK A01 T02930185  RH  052%=      5-min Rain = 0
KWA1 170349Z 15006KT 29/19 A2999 RMK A01 T02940185  RH  052%=      5-min Rain = 0
KWA1 170350Z 15006KT 29/19 A2999 RMK A01 T02940185  RH  052%=      5-min Rain = 0
KWA1 170351Z 15006KT 29/19 A2999 RMK A01 T02930185  RH  052%=      5-min Rain = 0
KWA1 170352Z 15006KT 29/18 A2999 RMK A01 T02920184  RH  052%=      5-min Rain = 0
KWA1 170353Z 15005KT 29/18 A2999 RMK A01 T02920184  RH  052%=      5-min Rain = 0
KWA1 170354Z 14006KT 29/18 A2999 RMK A01 T02910184  RH  052%=      5-min Rain = 0
KWA1 170355Z 14006KT 29/18 A2999 RMK A01 T02910184  RH  053%=      5-min Rain = 0
KWA1 170356Z 14006KT 29/18 A2999 RMK A01 T02900184  RH  053%=      5-min Rain = 0
KWA1 170357Z 14005KT 29/19 A2999 RMK A01 T02900185  RH  053%=      5-min Rain = 0
KWA1 170358Z 14005KT 29/18 A2999 RMK A01 T02900184  RH  053%=      5-min Rain = 0
KWA1 170359Z 13005KT 29/18 A2999 RMK A01 T02890184  RH  053%=      5-min Rain = 0
KWA1 170400Z 14006KT 29/18 A2999 RMK A01 T02890184  RH  053%=      5-min Rain = 0
KWA1 170401Z 13006KT 29/19 A2999 RMK A01 T02890185  RH  053%=      5-min Rain = 0
KWA1 170402Z 13006KT 29/18 A2999 RMK A01 T02880184  RH  054%=      5-min Rain = 0
KWA1 170403Z 14006KT 29/18 A2999 RMK A01 T02870184  RH  054%=      5-min Rain = 0
KWA1 170404Z 14006KT 29/19 A2999 RMK A01 T02860185  RH  054%=      5-min Rain = 0
KWA1 170405Z 14006KT 29/19 A2999 RMK A01 T02850185  RH  054%=      5-min Rain = 0
KWA1 170406Z 14005KT 29/19 A2999 RMK A01 T02850185  RH  055%=      5-min Rain = 0
KWA1 170407Z 14005KT 29/19 A2999 RMK A01 T02850185  RH  055%=      5-min Rain = 0
KWA1 170408Z 14005KT 29/19 A2999 RMK A01 T02850185  RH  055%=      5-min Rain = 0
KWA1 170409Z 14005KT 28/19 A2999 RMK A01 T02840185  RH  055%=      5-min Rain = 0
KWA1 170410Z 14005KT 29/19 A2999 RMK A01 T02850185  RH  055%=      5-min Rain = 0
KWA1 170411Z 14005KT 28/19 A2999 RMK A01 T02840185  RH  055%=      5-min Rain = 0
KWA1 170412Z 14005KT 28/19 A2999 RMK A01 T02840185  RH  055%=      5-min Rain = 0
KWA1 170413Z 14006KT 28/19 A2999 RMK A01 T02840185  RH  055%=      5-min Rain = 0
KWA1 170414Z 14006KT 28/19 A30 RMK A01 T02840185  RH  055%=      5-min Rain = 0
KWA1 170415Z 14006KT 28/19 A30 RMK A01 T02840185  RH  055%=      5-min Rain = 0
KWA1 170416Z 14006KT 28/19 A30 RMK A01 T02830185  RH  055%=      5-min Rain = 0
KWA1 170417Z 14005KT 28/18 A30 RMK A01 T02830184  RH  055%=      5-min Rain = 0
KWA1 170418Z 14005KT 28/19 A30 RMK A01 T02830185  RH  055%=      5-min Rain = 0
KWA1 170419Z 14005KT 28/19 A30 RMK A01 T02830185  RH  055%=      5-min Rain = 0
KWA1 170420Z 15005KT 28/19 A30 RMK A01 T02820185  RH  055%=      5-min Rain = 0
KWA1 170421Z 14005KT 28/19 A30 RMK A01 T02820185  RH  055%=      5-min Rain = 0
KWA1 170422Z 14005KT 28/18 A30 RMK A01 T02820184  RH  056%=      5-min Rain = 0
KWA1 170423Z 14006KT 28/18 A30 RMK A01 T02810184  RH  056%=      5-min Rain = 0
KWA1 170424Z 14006KT 28/19 A30 RMK A01 T02810185  RH  056%=      5-min Rain = 0
KWA1 170425Z 14005KT 28/19 A30 RMK A01 T02810185  RH  056%=      5-min Rain = 0
KWA1 170426Z 14006KT 28/19 A30 RMK A01 T02810185  RH  056%=      5-min Rain = 0
KWA1 170427Z 14006KT 28/19 A30 RMK A01 T02810185  RH  056%=      5-min Rain = 0
KWA1 170428Z 14006KT 28/19 A30 RMK A01 T02810185  RH  056%=      5-min Rain = 0
KWA1 170429Z 14006KT 28/19 A30 RMK A01 T02810185  RH  056%=      5-min Rain = 0
KWA1 170430Z 14006KT 28/19 A30 RMK A01 T02810185  RH  056%=      5-min Rain = 0
KWA1 170431Z 15006KT 28/19 A30 RMK A01 T02800185  RH  056%=      5-min Rain = 0
KWA1 170432Z 14006KT 28/19 A30 RMK A01 T02800185  RH  056%=      5-min Rain = 0
KWA1 170433Z 14006KT 28/19 A30 RMK A01 T02800185  RH  056%=      5-min Rain = 0
KWA1 170434Z 14006KT 28/19 A30 RMK A01 T02800185  RH  056%=      5-min Rain = 0
KWA1 170435Z 14006KT 28/19 A30 RMK A01 T02800185  RH  056%=      5-min Rain = 0
KWA1 170436Z 14006KT 28/19 A30 RMK A01 T02800185  RH  056%=      5-min Rain = 0
KWA1 170437Z 14006KT 28/19 A30 RMK A01 T02800185  RH  056%=      5-min Rain = 0
KWA1 170438Z 14006KT 28/19 A30 RMK A01 T02800185  RH  056%=      5-min Rain = 0
KWA1 170439Z 14006KT 28/19 A30 RMK A01 T02800185  RH  056%=      5-min Rain = 0
KWA1 170440Z 14007KT 28/19 A30 RMK A01 T02800185  RH  056%=      5-min Rain = 0
KWA1 170441Z 14006KT 28/19 A30 RMK A01 T02800185  RH  056%=      5-min Rain = 0
KWA1 170442Z 14006KT 28/19 A30 RMK A01 T02800185  RH  056%=      5-min Rain = 0
KWA1 170443Z 14006KT 28/19 A30 RMK A01 T02800185  RH  056%=      5-min Rain = 0
KWA1 170444Z 14007KT 28/19 A30 RMK A01 T02800185  RH  057%=      5-min Rain = 0
KWA1 170445Z 14006KT 28/19 A30 RMK A01 T02800185  RH  057%=      5-min Rain = 0
KWA1 170446Z 14006KT 28/19 A30 RMK A01 T02800186  RH  057%=      5-min Rain = 0
KWA1 170447Z 13007KT 28/19 A30 RMK A01 T02800186  RH  057%=      5-min Rain = 0
KWA1 170448Z 13007KT 28/19 A30 RMK A01 T02790186  RH  057%=      5-min Rain = 0
KWA1 170449Z 13007KT 28/19 A30 RMK A01 T02790186  RH  057%=      5-min Rain = 0
KWA1 170450Z 14007KT 28/19 A30 RMK A01 T02790186  RH  057%=      5-min Rain = 0
KWA1 170451Z 14008KT 28/19 A30 RMK A01 T02790187  RH  057%=      5-min Rain = 0
KWA1 170452Z 14007KT 28/19 A30 RMK A01 T02790187  RH  057%=      5-min Rain = 0
KWA1 170453Z 14008KT 28/19 A30 RMK A01 T02790187  RH  057%=      5-min Rain = 0
KWA1 170454Z 14008KT 28/19 A30 RMK A01 T02790187  RH  057%=      5-min Rain = 0
KWA1 170455Z 14007KT 28/19 A30 RMK A01 T02800187  RH  057%=      5-min Rain = 0
KWA1 170456Z 14008KT 28/19 A30 RMK A01 T02800187  RH  057%=      5-min Rain = 0
KWA1 170457Z 14008KT 28/19 A30 RMK A01 T02800187  RH  057%=      5-min Rain = 0
KWA1 170458Z 14008KT 28/19 A30 RMK A01 T02800187  RH  057%=      5-min Rain = 0
KWA1 170459Z 14008KT 28/19 A30 RMK A01 T02810187  RH  057%=      5-min Rain = 0

Page generated in 0.1223 seconds.